GFSNW_700_spd_027.txt.gz
Wind_Speed
18 19 18 12 7 13 17 18 17 13 7 12 21 22 20 15 15 6 5 4 5 9 15 12 16 12 5 11 8 7 7 6 7 11 7 10 13 12 13 6 5 5 2 3
23 16 17 13 10 8 11 12 12 14 7 13 16 13 10 8 7 4 1 2 2 7 13 6 12 12 9 5 11 6 9 5 7 4 6 10 13 16 15 12 6 7 3 2
26 14 16 15 10 6 7 9 3 6 9 10 11 9 7 4 2 5 5 2 1 5 10 7 9 11 11 10 4 14 9 6 3 5 2 4 8 13 19 18 8 6 14 7
28 19 12 14 11 6 3 3 3 2 3 4 1 3 3 2 2 3 4 6 6 7 10 9 4 12 11 10 12 16 12 5 6 8 8 8 7 7 12 24 24 11 6 11
25 20 11 11 11 7 4 3 1 2 1 2 2 1 1 1 5 6 3 2 4 8 7 7 1 8 10 6 9 14 16 5 4 5 9 12 17 16 17 16 19 24 21 13
25 20 12 9 8 8 4 7 7 5 1 1 3 2 1 1 2 5 8 10 4 3 4 3 7 8 7 2 3 12 12 9 3 2 3 8 15 15 22 22 21 15 16 4
26 21 12 11 8 8 6 5 9 12 11 8 7 6 5 4 3 3 7 5 2 3 1 2 7 8 5 8 4 8 10 8 5 4 6 2 2 3 1 6 10 9 4 3
24 20 11 11 10 8 8 7 6 8 10 12 12 11 9 8 7 7 9 8 6 5 6 6 6 3 6 6 7 10 13 11 4 3 5 9 8 5 5 6 6 8 2 3
20 18 12 8 11 11 9 10 10 10 8 5 10 15 15 15 13 12 12 13 12 10 11 10 7 7 6 6 6 12 14 14 11 4 3 3 1 9 8 6 9 2 2 6
16 16 15 12 8 11 11 11 12 13 12 12 11 11 13 18 18 16 14 16 15 15 15 13 9 9 8 7 9 13 16 15 17 12 7 9 9 11 4 5 7 2 6 8
13 13 14 17 17 22 12 14 14 16 18 16 20 21 22 20 19 20 18 16 21 19 18 12 9 10 13 11 9 11 14 12 10 12 7 9 10 12 10 7 5 5 6 8
11 11 14 14 19 20 23 21 18 18 21 19 22 24 24 22 19 25 24 24 13 19 14 18 12 12 10 15 7 17 13 13 7 10 3 5 7 12 10 8 7 7 5 8
15 16 15 16 19 23 24 23 27 32 32 29 18 15 17 20 31 33 34 29 25 21 25 16 16 10 14 15 17 13 21 16 16 12 14 11 12 14 14 14 11 10 9 9
17 16 17 17 18 23 22 21 20 24 30 35 11 16 18 25 24 35 39 33 31 22 25 25 19 16 13 14 15 13 17 16 18 22 19 14 18 20 20 18 19 16 15 13
20 19 20 21 22 18 18 21 20 20 16 22 17 18 17 20 23 24 37 43 37 37 20 24 24 25 18 14 15 19 16 18 19 21 17 17 19 18 23 24 23 22 19 16
19 20 18 16 16 19 15 8 5 7 11 17 15 10 11 17 20 22 26 39 50 39 29 23 26 22 19 11 20 20 15 16 15 15 15 17 15 17 19 22 25 26 21 18
17 18 13 10 13 15 10 7 10 11 14 17 14 10 14 12 12 15 17 32 45 43 35 21 28 26 20 22 24 15 9 11 15 15 16 16 14 14 13 15 16 20 22 20
17 17 11 10 12 12 15 14 13 12 13 10 7 10 11 12 12 1 9 25 38 19 30 16 22 21 21 19 17 12 13 15 14 13 11 12 9 14 16 15 16 18 19 20
17 17 8 11 11 12 17 20 12 6 8 7 8 12 10 8 4 4 10 18 21 12 22 20 26 25 15 9 10 9 9 11 13 13 15 19 22 18 17 19 18 18 20 19
18 17 12 8 13 16 18 16 4 5 5 8 15 15 5 3 4 6 13 4 17 10 12 20 23 22 23 18 16 14 13 14 15 16 17 19 19 16 15 16 19 20 20 19
18 17 14 11 14 18 13 4 3 3 3 8 15 14 9 10 6 7 1 3 7 5 9 10 6 18 16 16 17 16 15 14 13 14 13 12 16 21 21 16 15 16 18 18
18 18 18 14 10 5 3 3 3 3 3 7 11 13 7 1 2 4 1 2 5 3 9 7 6 11 12 10 7 8 9 9 11 9 8 15 21 20 20 16 11 11 12 12
19 14 7 5 3 4 4 5 4 4 6 9 9 7 4 3 5 3 2 2 3 4 8 5 9 10 11 11 10 9 7 5 4 7 7 17 22 10 6 12 13 14 14 12
16 10 6 3 4 6 8 10 11 11 12 13 13 8 5 3 4 4 4 5 5 4 5 7 8 6 7 8 9 6 5 4 3 3 5 15 22 5 6 10 13 10 5 9
13 8 4 4 6 8 14 14 15 16 16 15 13 12 9 7 4 4 4 3 4 5 3 5 6 7 12 13 11 8 5 3 3 2 5 8 14 16 14 10 7 7 8 11
8 4 13 17 17 17 19 21 22 20 19 14 9 7 5 6 5 5 6 4 3 2 6 8 5 10 14 13 11 8 5 4 2 1 3 5 7 8 8 8 9 10 10 12
10 18 19 17 18 19 20 21 21 18 17 12 7 6 7 5 5 7 7 5 3 6 9 10 2 10 11 12 11 10 9 8 8 8 8 10 11 12 13 13 13 13 13 12

GFSNW_700_spd_030.txt.gz
Wind_Speed
25 21 17 14 12 13 12 12 13 15 9 7 16 16 13 12 8 4 5 5 3 8 12 14 9 7 6 12 10 7 6 7 7 8 11 15 17 15 12 5 4 4 1 3
26 22 19 12 12 10 7 8 6 12 10 9 11 10 8 6 5 2 4 5 2 4 9 4 12 10 9 8 8 7 8 6 7 4 7 14 17 21 19 18 7 7 3 4
25 23 19 11 11 8 6 4 1 6 8 11 10 6 3 2 4 5 5 2 2 4 10 4 11 9 8 6 7 10 11 8 5 5 3 7 13 17 21 18 8 6 9 4
25 23 18 11 9 7 5 2 1 3 6 4 3 4 4 1 1 4 4 5 5 5 7 9 2 10 9 9 9 11 10 7 9 7 5 4 5 8 17 25 21 10 6 10
25 22 16 11 8 7 6 6 4 4 4 6 5 4 3 1 2 4 1 2 6 8 6 6 3 5 8 8 11 13 15 7 7 7 9 11 14 16 17 17 22 28 22 15
26 22 15 10 8 7 4 8 9 7 6 4 5 4 4 2 1 4 9 8 4 2 4 3 7 6 8 3 4 9 14 11 5 3 5 7 14 17 24 23 22 18 17 4
24 20 14 8 10 8 6 4 8 11 11 9 8 8 7 6 4 5 7 6 4 5 3 1 5 8 8 7 3 5 10 7 6 3 3 4 5 6 3 10 19 19 14 9
21 19 14 7 11 9 8 6 5 7 9 13 13 13 11 9 8 7 10 10 6 5 5 7 6 5 6 7 7 10 10 9 3 2 5 10 9 8 4 5 8 14 13 9
21 17 15 10 7 12 9 9 7 8 9 9 11 14 16 15 14 12 12 12 12 10 10 8 5 6 6 7 6 12 14 13 9 3 3 3 3 10 10 8 5 12 11 7
18 14 14 11 8 8 15 12 10 11 11 11 12 12 13 15 19 18 15 16 16 15 15 13 9 7 8 7 9 13 17 17 16 13 7 9 10 14 11 7 6 14 8 6
16 14 14 14 13 13 11 17 20 16 15 15 17 16 17 19 18 18 19 17 21 19 18 13 13 10 12 10 9 9 15 12 11 12 7 10 15 18 13 11 11 9 8 7
17 16 15 16 16 18 18 17 15 23 22 15 15 17 17 17 19 18 21 23 12 20 14 19 11 12 10 15 6 18 13 14 8 11 7 6 9 19 20 15 12 11 9 9
17 18 17 17 17 16 22 23 22 19 18 21 27 27 20 20 24 32 33 28 28 23 28 20 20 13 15 15 17 16 18 18 15 12 12 10 11 12 14 15 14 13 13 11
17 20 19 18 18 16 23 24 19 16 16 15 12 18 21 23 23 27 28 29 35 35 24 29 28 22 18 18 19 17 17 16 22 23 18 12 16 19 20 21 21 19 19 17
19 22 19 18 17 14 18 17 15 13 8 10 5 6 9 10 15 18 20 27 39 35 41 29 33 33 20 18 18 23 20 19 21 21 15 15 19 21 22 24 27 27 23 22
21 19 18 19 8 13 15 7 8 10 12 13 6 7 10 11 11 15 22 20 30 48 41 43 18 32 29 17 27 25 17 15 17 22 18 18 20 19 22 24 26 30 30 29
20 17 18 14 8 10 10 10 12 14 14 13 5 2 10 12 13 15 17 20 22 27 50 43 19 17 24 28 24 15 7 10 14 14 12 14 15 18 17 17 17 17 21 23
18 18 17 8 8 8 13 15 17 10 12 6 4 8 10 15 12 12 4 10 18 24 37 36 29 14 27 26 24 20 18 19 19 19 16 13 11 11 14 17 18 18 18 20
20 17 15 5 5 11 16 19 11 6 4 4 10 16 8 11 9 8 5 4 4 14 19 23 25 18 20 23 21 14 12 13 12 13 13 14 15 18 17 16 18 19 19 21
21 18 15 9 7 13 18 11 5 4 3 4 13 16 20 8 4 2 5 3 9 16 16 16 26 21 23 18 15 11 10 11 11 13 15 15 18 20 18 15 15 17 20 21
23 22 17 13 9 12 9 4 3 4 3 7 12 17 18 8 8 5 8 5 10 5 8 14 9 16 20 21 23 22 18 16 16 15 15 11 11 16 19 22 22 19 19 21
22 21 15 10 7 4 4 5 4 4 4 9 12 17 14 5 6 3 4 4 3 2 10 7 5 11 16 19 22 21 17 15 13 12 12 9 15 22 23 19 18 16 13 14
22 18 10 7 6 7 6 10 6 9 9 14 15 15 15 4 4 4 4 2 2 2 7 5 9 8 9 14 15 12 10 9 8 8 7 5 14 22 8 7 8 13 14 14
15 12 6 6 5 8 9 9 12 15 17 19 17 14 10 8 5 4 3 3 3 4 4 5 6 6 8 10 12 11 8 7 6 5 5 4 15 17 9 7 9 13 13 10
10 6 4 11 15 15 16 18 17 19 20 22 21 13 8 9 6 4 4 3 3 5 2 6 5 5 7 11 12 12 10 8 7 7 5 4 11 11 16 16 15 12 7 8
5 3 11 14 15 14 16 18 19 19 18 19 18 7 5 6 5 5 5 3 3 1 4 9 5 3 12 14 13 10 9 8 5 3 2 5 6 6 7 8 8 8 9 9
5 9 11 13 13 15 16 17 18 19 16 14 10 6 6 5 6 6 6 5 5 3 4 7 8 4 12 13 13 12 12 11 10 9 9 9 10 11 13 16 16 14 14 13

GFSNW_700_spd_033.txt.gz
Wind_Speed
24 25 24 20 14 12 10 9 8 6 5 3 9 15 10 10 7 6 7 6 5 5 6 6 4 4 3 10 7 3 4 6 7 7 14 15 13 9 13 6 5 4 3 3
27 25 21 19 14 11 7 5 3 5 6 3 5 6 7 7 5 5 6 5 3 6 6 4 5 5 6 11 9 4 6 4 7 2 6 14 17 18 15 14 5 6 4 5
30 23 21 18 10 10 6 5 3 1 6 8 7 6 4 2 3 5 4 2 3 5 5 3 9 9 9 6 7 9 9 5 5 2 3 7 14 19 22 19 8 8 12 2
30 24 21 17 9 9 6 6 5 7 7 4 5 6 5 3 1 3 3 2 5 4 4 4 4 9 10 10 7 10 8 7 9 6 4 4 7 12 19 26 24 12 4 11
28 25 20 16 9 9 6 7 8 6 9 6 5 5 5 4 2 3 1 2 5 7 3 4 6 6 8 6 11 9 12 6 9 9 11 12 14 14 14 19 23 23 17 14
28 24 21 16 9 9 7 6 9 9 7 8 6 7 6 4 2 2 4 5 3 2 6 6 7 6 7 5 6 10 9 11 6 3 6 7 13 21 25 23 21 21 22 19
28 24 19 15 11 8 7 7 7 10 10 8 10 7 8 6 4 4 6 5 3 4 5 3 5 7 9 8 6 7 8 9 8 3 3 4 6 7 8 21 22 23 21 14
25 22 17 14 12 9 8 8 8 7 10 13 13 12 11 10 8 7 10 8 4 2 2 4 3 3 3 8 9 9 9 8 3 3 7 12 9 10 9 8 10 20 19 17
21 18 17 16 14 12 9 15 10 9 8 9 11 14 15 15 14 11 12 12 11 8 6 4 4 5 4 4 4 13 14 12 8 4 4 3 3 7 7 5 3 10 17 18
20 17 16 16 14 13 12 12 19 15 11 12 11 12 12 14 16 15 14 14 13 13 10 9 8 9 7 5 7 8 13 13 15 12 7 8 10 9 11 6 5 12 15 14
22 17 17 17 17 15 13 12 11 12 25 15 16 15 14 14 13 14 17 14 18 17 16 10 10 9 9 9 8 9 14 9 10 13 8 9 9 15 12 10 8 12 14 12
21 16 16 18 19 20 18 16 13 15 15 18 21 16 15 14 15 17 20 21 13 15 13 16 11 13 8 11 9 15 12 14 9 11 7 12 7 18 24 13 11 12 11 11
19 18 18 19 18 19 18 20 23 22 19 16 19 28 26 24 24 25 27 23 25 23 25 22 16 14 13 13 16 13 16 16 18 11 10 13 10 12 19 19 18 14 14 14
20 19 20 17 18 17 16 19 19 17 16 15 13 14 17 24 24 23 24 25 31 34 32 27 32 27 18 16 19 16 15 14 19 23 20 11 16 14 14 14 16 17 19 17
24 22 18 16 16 10 14 13 6 5 6 6 6 11 11 8 8 11 15 21 26 33 38 38 30 37 27 24 25 25 26 23 20 14 12 13 13 16 19 20 22 23 25 25
24 23 20 16 9 11 12 8 12 14 12 10 0 2 1 3 4 8 12 17 23 31 36 43 49 18 28 22 29 26 22 19 18 18 20 17 19 18 19 21 24 26 26 28
22 21 19 17 6 9 10 13 17 19 11 6 3 1 4 6 10 10 18 21 20 25 27 35 45 46 31 30 24 18 22 22 23 22 19 19 18 18 17 20 21 20 20 21
22 21 18 16 7 8 12 16 21 12 7 4 5 7 10 10 14 15 18 15 15 21 25 23 29 42 47 14 34 29 21 16 16 15 15 18 16 16 13 13 15 18 19 19
22 21 20 16 8 8 13 20 15 6 4 4 8 16 9 18 14 13 13 10 12 8 18 22 14 22 17 16 14 21 19 18 20 18 19 20 17 16 17 17 18 18 19 20
23 24 21 14 16 13 11 14 7 5 5 6 9 17 23 18 14 11 10 9 7 8 6 7 13 27 35 23 13 18 18 15 12 11 12 13 15 16 18 19 18 19 18 18
21 23 20 16 13 8 5 5 6 8 5 10 15 20 22 17 15 13 8 6 5 5 5 8 9 24 25 15 18 16 15 13 13 13 14 15 14 14 18 21 23 22 24 23
22 21 16 12 9 7 7 8 6 7 7 18 21 23 21 16 11 6 7 7 4 4 3 7 4 13 16 14 20 23 22 21 19 19 16 12 10 14 18 19 20 23 22 21
22 18 11 8 6 7 7 11 10 11 14 20 22 24 20 8 6 7 6 4 4 8 3 3 7 6 5 11 16 19 19 18 17 14 11 7 4 12 17 10 10 9 8 10
19 13 7 5 5 7 13 16 17 19 21 22 23 22 17 13 8 6 5 5 6 3 3 4 8 7 7 9 11 12 12 12 11 9 11 5 5 10 12 16 10 7 11 14
16 8 4 5 14 16 15 16 18 19 19 22 22 19 16 12 7 5 5 4 4 4 3 8 12 8 8 8 10 11 11 10 10 11 10 4 7 6 11 15 19 19 17 12
11 5 10 16 15 13 14 16 17 19 21 21 17 9 6 7 5 5 5 4 3 4 6 7 12 9 7 11 12 12 13 13 12 10 6 4 5 4 7 11 12 14 12 11
7 10 12 13 16 16 15 16 16 18 20 20 14 5 5 7 7 7 6 8 11 10 9 6 7 6 6 11 12 12 13 13 12 10 8 10 10 12 12 13 15 17 16 15

GFSNW_700_spd_036.txt.gz
Wind_Speed
35 35 29 25 18 13 10 6 5 8 3 5 6 10 13 10 8 9 7 6 8 2 3 4 3 5 6 10 10 7 5 9 9 6 10 16 24 18 19 4 5 5 1 0
32 32 28 24 17 12 6 5 1 3 1 5 3 7 9 8 6 6 6 3 2 7 5 3 4 3 4 11 10 7 7 8 8 3 6 15 18 19 16 16 8 7 1 4
31 31 29 24 16 12 6 5 3 1 2 9 6 3 2 3 3 3 2 2 4 5 4 3 7 4 6 9 7 7 8 8 6 5 4 8 21 24 24 24 14 6 9 11
30 30 27 23 16 10 7 4 4 6 6 5 3 8 6 1 3 3 2 1 5 4 3 3 3 8 9 8 5 8 8 6 9 7 4 7 8 14 23 29 26 14 9 14
31 28 25 21 16 10 7 4 6 5 6 6 3 1 2 4 3 1 3 2 3 6 2 3 5 5 7 7 9 8 10 5 8 9 11 11 13 13 18 25 26 29 18 16
32 28 25 20 16 10 9 6 5 7 4 6 5 8 6 3 3 1 2 6 4 3 6 9 7 7 5 7 7 9 7 7 5 3 5 7 15 22 25 23 25 26 32 26
30 27 23 20 17 12 8 7 5 5 5 6 8 8 8 7 4 3 5 5 3 2 2 4 5 7 7 6 6 7 7 6 6 2 2 2 5 8 10 21 23 21 21 18
29 25 20 18 17 15 11 9 8 7 7 11 12 11 9 8 6 5 8 5 2 2 2 4 2 1 1 6 9 7 6 6 2 3 7 13 17 11 9 10 13 20 24 19
27 25 20 17 16 15 14 11 10 14 9 10 10 11 12 12 10 5 9 9 9 6 4 3 3 5 5 3 3 11 12 12 7 4 4 3 4 7 5 7 9 7 17 22
29 25 20 17 16 16 15 14 12 10 20 12 11 11 11 11 15 12 10 10 9 8 8 7 6 7 7 5 7 7 13 14 16 12 6 9 12 10 6 4 2 3 15 20
29 26 24 22 21 19 16 15 13 11 11 14 21 14 13 12 11 13 15 11 10 10 11 8 10 10 8 8 9 9 14 12 10 14 6 9 8 8 10 6 4 7 12 13
26 26 25 25 23 20 18 16 15 14 15 14 16 23 19 18 16 15 16 13 8 12 9 10 9 10 8 11 7 14 12 15 8 11 8 10 10 8 14 10 8 7 10 12
24 26 25 22 20 21 19 18 20 22 18 11 13 16 21 20 17 16 16 15 18 21 20 18 14 16 11 16 16 15 17 14 21 15 14 18 14 12 13 15 17 12 10 12
23 25 26 21 19 18 18 19 17 15 14 7 5 9 11 17 23 20 17 20 20 24 27 27 26 26 17 21 21 18 18 17 20 25 21 16 12 11 11 10 14 16 16 16
23 25 25 23 20 13 16 16 14 19 17 13 7 5 3 4 2 9 14 15 18 20 26 34 40 40 35 31 27 32 26 27 21 17 10 11 11 10 14 13 15 17 17 18
23 25 25 24 19 12 15 15 17 23 19 11 4 5 5 3 4 5 6 9 15 22 28 32 36 36 30 23 42 39 32 31 27 21 18 18 17 13 14 16 17 19 21 22
23 25 25 24 20 13 13 17 21 22 14 8 5 4 5 7 7 10 8 11 15 17 21 26 29 30 28 47 30 11 14 23 23 23 20 19 19 19 17 17 18 18 20 20
21 24 26 23 19 14 13 15 22 12 9 7 9 7 6 14 16 16 13 16 18 20 18 22 22 17 24 31 37 20 12 19 21 16 15 18 21 19 16 15 14 13 14 16
21 22 24 22 21 17 14 13 13 9 8 5 10 18 14 21 18 17 16 17 20 17 19 14 9 16 19 21 39 34 14 21 21 17 17 18 19 19 20 17 17 16 17 17
23 23 22 19 21 18 12 10 11 8 8 11 18 21 25 21 19 14 13 10 9 10 10 9 11 18 10 14 18 32 7 17 16 14 13 14 15 16 16 17 18 17 17 18
22 23 19 18 16 15 10 12 11 12 7 14 22 25 27 23 16 14 7 7 6 5 6 6 6 8 3 18 27 17 11 14 13 10 8 9 12 15 16 17 19 20 22 23
20 21 17 12 12 8 9 12 9 9 9 23 24 24 26 20 10 6 7 6 4 4 11 5 5 9 12 10 12 12 13 11 12 10 11 12 12 11 13 16 20 23 23 24
17 17 13 6 6 8 7 10 11 15 22 25 26 26 23 15 11 8 6 4 5 14 4 6 9 18 14 7 6 9 15 17 17 15 14 10 8 4 9 12 13 12 9 8
12 10 6 4 5 8 11 13 15 17 19 22 24 23 17 15 11 6 6 6 7 3 3 4 14 18 14 8 5 8 12 14 13 11 9 13 5 4 5 11 15 16 9 6
8 6 3 3 11 13 13 13 16 19 19 22 23 21 14 11 7 5 7 5 3 3 4 13 16 17 13 7 5 6 7 8 9 9 15 11 5 2 3 8 9 11 13 15
13 6 6 9 10 11 13 13 14 17 20 23 23 13 6 6 6 5 5 5 3 4 13 16 14 13 11 3 3 4 6 9 10 13 15 12 4 5 3 5 9 13 13 15
8 8 11 13 12 14 16 16 16 17 18 21 21 8 5 10 8 8 6 5 11 14 16 18 18 12 8 6 8 10 11 13 14 15 14 12 9 8 10 11 13 16 20 18

GFSNW_700_spd_039.txt.gz
Wind_Speed
30 32 29 27 19 11 6 4 2 4 5 7 9 11 12 11 12 11 10 7 8 6 7 7 5 6 7 9 13 13 9 8 10 17 17 26 28 28 29 13 6 6 3 4
29 30 28 26 21 11 3 3 2 3 5 3 8 9 10 7 5 6 6 4 2 9 5 3 3 5 10 16 13 11 9 10 10 4 10 21 33 32 34 23 11 9 3 3
28 30 28 26 22 13 4 1 3 4 8 7 4 6 3 2 3 2 0 2 5 7 5 2 6 5 10 13 10 9 8 13 7 13 5 15 28 36 35 34 20 15 16 9
27 28 28 25 21 14 7 3 4 6 6 10 5 6 5 1 1 1 1 3 7 6 1 1 3 5 9 11 9 10 10 9 10 10 6 8 12 25 27 30 27 24 17 16
27 27 27 25 22 15 8 6 3 2 2 7 7 8 7 4 3 2 3 2 6 7 5 3 6 3 9 9 10 9 12 7 11 12 10 10 12 14 24 34 33 33 20 19
27 27 26 25 22 18 10 5 4 2 2 8 8 7 6 3 4 2 6 4 6 11 6 5 5 5 3 5 6 11 10 9 8 5 7 9 14 24 26 24 30 34 37 28
28 27 25 24 21 19 14 6 2 1 5 9 10 10 10 7 5 3 5 7 3 5 5 7 7 8 9 8 8 7 7 7 7 3 4 2 6 6 7 17 26 25 28 29
27 26 24 23 21 19 15 11 7 7 6 10 10 10 9 8 8 5 6 5 4 4 3 3 3 1 2 6 7 8 7 6 4 3 7 13 14 10 12 12 13 24 24 20
25 26 25 22 20 19 17 15 11 8 12 8 7 9 11 10 9 6 8 9 9 5 5 5 3 3 3 4 3 10 13 9 6 6 4 4 2 3 6 8 15 10 16 24
24 25 27 25 22 19 17 15 13 10 7 15 13 10 9 10 13 14 13 9 8 8 9 6 5 6 5 4 6 6 12 16 17 12 6 10 11 6 5 5 4 6 12 22
22 24 26 25 23 21 19 17 13 10 10 11 14 22 13 11 10 11 14 10 9 9 8 6 8 8 8 11 10 8 7 9 12 14 6 9 3 4 7 5 3 1 5 18
21 24 25 26 23 22 20 19 19 15 11 13 13 13 21 17 13 13 12 9 6 8 8 8 6 8 7 10 8 12 10 12 6 11 5 5 5 7 8 8 3 3 5 9
18 21 24 25 24 22 18 20 18 22 14 4 5 8 12 18 18 17 15 14 13 14 14 13 12 13 12 15 17 18 19 15 15 11 12 16 13 11 11 8 10 6 6 8
17 20 22 24 24 18 18 18 17 22 13 8 6 4 6 11 20 20 16 14 13 14 18 23 25 26 19 25 25 22 17 17 23 26 23 19 14 10 8 9 10 13 13 12
18 21 22 24 23 16 16 17 19 21 13 9 10 13 13 11 8 13 22 19 19 19 18 19 24 30 34 38 38 38 31 27 22 25 17 14 11 12 13 12 10 10 11 13
21 21 21 21 20 16 16 18 20 19 14 12 9 13 12 10 9 7 1 4 8 12 16 19 20 20 25 24 39 40 41 32 28 28 25 24 17 12 11 11 12 14 17 19
21 23 22 22 21 18 15 15 19 13 10 5 5 6 13 15 12 10 6 7 12 16 18 19 18 20 22 36 45 34 20 35 39 35 24 28 22 20 15 16 18 18 19 20
21 21 22 23 23 19 16 15 17 14 8 10 13 9 8 19 15 13 8 10 13 16 15 16 19 19 23 28 31 27 30 15 19 26 26 22 22 22 21 20 19 17 16 14
21 22 21 22 21 20 18 16 17 16 14 12 16 22 14 24 18 15 16 15 13 11 11 11 14 18 11 23 15 12 18 34 14 23 31 18 17 17 16 17 18 17 17 17
19 21 21 19 18 16 19 17 14 10 12 19 22 19 23 24 20 14 15 9 9 9 8 14 10 13 20 18 6 8 15 22 6 7 8 10 13 15 17 18 20 18 18 18
16 19 17 14 11 13 10 11 10 11 9 15 23 23 22 20 20 15 5 7 7 5 6 9 5 8 22 10 10 8 13 22 19 8 11 8 9 9 11 13 16 17 18 19
14 16 15 11 10 8 7 9 9 7 9 21 24 25 24 16 13 9 6 6 5 4 9 6 4 19 24 18 11 14 15 12 7 10 10 10 7 8 7 8 11 14 17 19
13 12 8 5 4 6 6 8 8 11 17 21 23 26 24 14 9 7 5 5 6 11 4 4 7 21 24 15 12 6 9 7 10 10 9 7 5 4 1 4 5 9 11 11
13 9 5 2 0 3 6 9 10 13 15 18 21 23 24 15 10 5 6 7 8 4 3 4 19 24 20 16 9 8 8 8 11 11 9 7 13 9 5 5 5 7 10 11
13 7 4 3 6 10 9 10 11 13 16 18 20 22 18 12 6 6 8 5 5 1 18 23 22 23 21 17 9 6 6 6 7 9 10 16 16 11 5 1 3 6 4 7
18 8 7 7 10 12 13 14 13 14 16 18 20 13 6 5 11 8 7 11 3 29 33 28 23 25 26 17 10 6 6 7 9 10 15 20 18 13 8 5 5 8 11 13
11 12 10 10 14 16 16 16 15 16 17 17 17 7 4 8 7 9 9 21 33 34 32 28 28 27 25 22 17 13 10 10 11 12 14 18 15 11 13 9 9 11 14 18

GFSNW_700_spd_042.txt.gz
Wind_Speed
23 26 25 23 20 15 5 4 2 2 5 5 8 15 10 11 10 10 8 6 11 7 7 7 6 6 4 16 27 23 17 11 12 25 31 27 33 27 35 13 6 14 4 9
21 23 23 22 21 14 6 4 3 3 6 5 11 13 10 6 6 4 6 5 5 9 6 3 7 7 11 15 21 17 14 7 10 9 18 27 34 37 33 34 19 23 10 7
19 20 20 21 19 14 6 2 4 7 8 5 5 8 5 2 2 3 3 3 7 8 5 1 7 9 15 12 9 9 9 8 9 11 5 19 33 37 36 36 25 25 27 21
20 20 19 19 20 16 8 2 5 6 10 9 9 5 4 2 1 2 4 6 8 5 4 2 3 8 13 17 14 13 13 7 16 10 11 10 15 26 38 41 42 25 36 32
20 19 18 19 20 19 13 4 2 5 7 11 8 10 9 5 4 3 4 6 9 6 4 3 4 3 8 10 14 13 14 7 12 13 11 10 13 14 24 35 42 42 43 31
19 19 20 20 19 17 12 6 1 5 5 10 10 10 8 7 7 4 5 4 6 8 7 4 2 4 3 5 8 11 12 10 7 5 11 12 15 27 28 31 37 39 40 38
18 19 20 22 21 17 12 8 3 3 5 9 11 12 10 9 7 6 6 6 6 6 9 8 7 6 6 6 6 7 7 9 8 3 6 2 11 9 11 26 32 30 32 33
17 19 22 23 21 19 15 9 5 4 8 10 12 13 12 11 10 9 8 9 5 7 6 6 5 5 4 6 6 7 7 7 4 4 8 17 15 12 13 15 19 20 30 27
15 18 21 23 22 20 17 12 7 6 4 11 11 14 12 11 11 10 10 11 9 8 8 5 4 4 4 3 3 9 10 10 8 5 4 5 2 2 4 8 17 13 15 23
14 18 20 23 23 19 17 13 10 7 6 7 13 11 11 12 15 13 9 10 12 12 10 8 5 4 4 4 6 8 12 14 17 14 7 12 10 10 7 4 4 6 10 13
15 17 18 20 23 20 17 16 14 10 8 11 10 10 18 11 13 15 14 10 11 9 8 6 6 6 6 9 10 8 7 8 10 13 8 10 5 7 7 6 8 8 7 14
15 16 17 20 22 19 17 18 16 18 8 6 7 9 10 18 14 13 12 12 8 11 9 9 7 7 6 8 8 11 10 13 5 11 6 5 5 8 7 6 5 5 3 4
17 18 19 19 19 14 16 19 18 17 10 7 3 3 7 10 21 16 14 13 12 10 8 9 11 11 12 13 15 18 17 15 20 18 10 12 14 14 11 12 7 6 4 5
16 18 18 18 16 13 16 17 19 18 9 11 9 3 2 3 9 20 18 14 14 13 12 15 17 20 18 23 23 25 23 19 24 28 27 23 18 18 9 10 9 13 13 10
17 19 18 15 14 13 14 14 17 19 19 18 18 17 15 14 12 2 20 15 12 12 14 17 17 21 22 29 33 36 32 35 33 32 20 18 16 12 14 16 14 11 13 14
17 19 20 17 14 13 9 14 16 11 12 14 13 16 20 18 10 6 6 5 16 19 17 15 14 13 14 15 24 26 27 22 34 41 33 28 22 22 15 12 12 13 15 15
17 18 19 18 14 15 15 15 14 13 11 11 7 8 15 21 13 9 2 5 10 14 16 17 14 13 19 27 29 21 21 24 26 36 45 32 28 24 19 18 17 17 17 18
18 18 17 18 17 15 15 17 16 12 17 13 11 8 9 19 17 11 7 8 8 9 8 7 9 12 17 9 27 24 19 22 32 32 30 37 27 21 19 20 19 19 19 20
14 16 15 15 16 15 15 15 17 18 20 15 15 19 11 18 17 13 13 9 7 4 6 7 9 5 7 25 27 21 17 18 18 21 15 26 32 29 24 22 25 25 23 19
10 12 13 13 12 12 9 9 9 10 15 20 22 21 22 18 16 13 12 7 7 5 3 11 6 1 21 27 25 21 13 9 11 11 4 15 25 32 19 20 20 21 21 22
7 9 10 11 10 11 8 9 6 10 8 16 21 24 23 20 18 14 5 6 5 4 3 8 5 4 27 29 23 16 13 17 20 16 12 5 15 11 14 16 17 18 18 19
7 8 8 7 7 5 6 9 7 6 8 15 20 23 25 19 17 9 6 4 3 3 8 5 2 26 25 26 20 18 8 12 12 9 5 10 12 11 9 9 11 12 13 16
8 9 4 3 2 2 3 5 5 7 13 17 19 20 20 17 14 8 6 4 4 9 5 1 25 25 23 24 23 15 15 8 8 7 8 10 11 12 11 6 3 1 4 6
12 8 7 4 3 2 5 9 10 11 13 15 17 18 15 17 9 7 5 6 8 4 6 19 33 30 28 26 23 21 15 11 7 10 13 14 15 14 11 7 4 2 3 4
14 7 5 4 6 8 11 11 12 14 15 16 17 16 13 8 4 5 7 7 4 6 22 35 35 36 33 27 25 21 20 16 11 8 10 12 17 18 12 9 7 5 2 2
12 10 9 14 15 14 14 16 17 16 16 18 17 12 6 5 8 6 4 6 6 19 30 33 29 27 32 28 25 24 20 20 17 13 10 11 17 18 17 13 10 8 7 7
7 13 19 18 16 16 18 18 19 18 16 14 11 5 3 10 8 6 6 12 24 35 38 33 29 30 29 29 25 22 22 18 18 18 12 9 18 20 20 18 13 10 11 13

GFSNW_700_spd_045.txt.gz
Wind_Speed
20 17 15 15 14 12 5 4 3 4 1 3 2 9 6 6 4 5 7 9 11 9 10 8 5 8 11 27 26 23 15 15 10 25 23 31 34 29 33 17 7 10 5 16
18 15 13 14 16 14 7 5 4 4 3 2 7 5 5 5 4 3 5 6 9 8 9 4 8 6 6 22 25 19 19 6 8 7 19 28 27 33 30 36 25 24 10 8
16 14 13 14 17 15 9 5 5 6 6 6 8 6 2 2 3 2 2 3 6 7 4 3 9 9 8 21 21 21 17 13 9 12 4 19 35 39 38 35 28 29 39 36
14 13 13 14 16 15 9 6 4 7 8 8 6 6 2 1 2 2 2 4 6 6 5 4 6 9 11 10 7 10 11 6 12 14 14 12 17 25 40 47 49 30 37 37
14 13 13 14 14 14 14 7 4 8 10 10 11 10 7 5 5 2 1 2 5 4 4 3 6 7 8 11 14 12 14 7 8 14 14 12 15 17 21 29 39 49 47 46
15 13 12 13 13 14 11 8 3 5 6 12 13 12 11 10 8 4 4 2 4 3 3 3 5 3 5 9 8 12 13 9 6 4 11 14 17 25 28 28 29 33 42 29
15 14 14 15 14 14 12 8 4 5 8 11 14 13 13 10 5 6 6 6 3 5 6 4 3 3 3 5 6 7 9 9 7 4 3 2 8 11 13 19 25 31 32 30
14 15 16 17 17 17 14 9 5 5 8 10 13 15 13 12 11 9 7 8 5 5 5 5 4 5 5 6 6 6 7 7 4 3 5 18 21 15 13 17 20 17 22 28
14 15 16 17 19 18 16 14 8 5 6 11 13 15 15 14 14 12 9 10 7 6 7 5 3 3 2 3 3 7 7 9 7 2 2 4 4 3 5 10 16 7 14 19
15 15 15 17 19 17 15 14 13 8 6 8 10 13 13 13 13 13 10 9 12 9 8 6 3 3 3 3 5 7 8 11 14 13 7 12 9 11 12 5 7 12 13 13
15 14 15 18 18 15 17 15 14 14 6 6 8 9 15 11 12 15 12 8 10 12 10 5 4 4 5 6 7 4 6 6 7 9 7 9 5 5 6 8 14 13 13 14
16 18 18 17 16 15 18 19 19 14 8 1 4 6 7 14 14 11 14 14 7 12 10 10 6 6 5 6 4 7 8 12 5 8 5 6 8 8 13 11 9 10 10 9
18 20 19 18 16 14 17 21 19 15 12 9 5 1 5 7 11 16 13 12 12 8 10 10 10 9 9 10 12 16 17 14 19 19 16 11 6 13 14 15 16 12 9 5
17 19 20 17 12 11 15 18 21 13 23 20 16 12 8 2 5 11 19 13 13 12 11 12 13 11 12 16 18 23 22 23 24 27 28 27 24 21 15 15 14 14 12 7
16 19 19 16 11 8 11 13 15 17 16 19 20 18 12 9 11 3 12 20 14 13 13 13 15 16 15 19 18 19 12 13 21 31 34 32 29 21 14 11 12 16 15 15
13 16 18 16 11 9 6 9 9 10 9 9 8 15 19 13 11 4 10 5 19 15 13 17 17 14 12 11 13 12 17 24 30 32 33 38 37 24 19 18 13 14 16 15
11 13 16 15 14 10 9 8 10 9 8 6 4 6 12 18 13 7 3 3 4 10 14 18 20 17 14 17 21 15 26 25 24 26 35 40 36 41 30 26 18 18 17 18
9 11 12 13 14 15 15 15 14 9 13 10 13 8 8 17 15 8 6 6 6 7 10 7 5 8 6 3 21 26 23 25 22 25 25 30 34 29 35 27 22 19 21 21
7 6 9 9 10 11 12 11 12 19 21 12 16 20 12 18 15 14 12 4 2 1 2 2 5 1 5 24 26 29 23 22 19 12 12 11 20 25 35 26 22 19 21 22
7 6 4 6 6 7 7 6 7 9 16 20 21 20 22 17 15 12 11 5 5 3 1 5 2 1 13 26 25 24 25 24 19 20 18 20 20 28 29 34 21 23 23 25
4 3 3 2 5 3 2 4 4 8 6 15 19 20 22 18 17 11 5 5 4 2 2 5 2 16 23 22 24 24 20 25 21 19 19 17 14 17 24 29 30 19 20 23
3 1 1 1 2 1 1 2 3 3 5 12 16 20 21 21 20 9 7 4 3 2 5 1 6 30 31 29 28 26 21 20 22 16 14 12 6 11 16 15 15 16 17 19
2 1 2 1 3 3 3 1 2 4 7 11 13 16 19 18 14 8 6 3 3 12 2 3 21 30 33 36 34 31 28 21 22 17 11 10 10 10 12 13 14 12 9 8
5 2 2 4 4 4 2 6 9 10 12 13 14 15 16 16 10 7 6 5 5 4 2 11 22 26 28 29 32 32 31 29 22 20 14 14 13 14 14 14 15 10 7 4
4 2 0 1 4 9 12 14 14 14 14 15 16 15 15 13 7 5 7 4 4 5 6 20 27 28 28 29 30 31 30 29 29 22 17 17 15 18 19 13 14 13 9 6
2 3 3 8 12 14 16 17 17 17 17 17 18 13 8 8 5 6 7 5 7 13 24 32 34 32 29 28 30 32 31 28 27 28 18 13 15 12 23 21 19 15 12 8
6 3 7 13 15 15 15 18 19 18 17 15 11 5 5 7 9 6 7 17 22 26 35 40 40 38 34 31 29 31 31 29 25 25 23 13 10 12 13 19 23 17 14 12

GFSNW_700_spd_048.txt.gz
Wind_Speed
21 19 16 17 17 15 10 5 4 5 4 5 2 7 5 4 3 3 6 7 6 5 9 8 7 10 7 15 11 15 10 4 12 16 16 23 27 23 30 16 6 10 7 17
20 18 15 15 16 14 9 4 4 5 4 2 5 6 8 6 4 3 4 4 5 6 4 2 5 7 10 11 19 15 14 5 8 7 17 22 26 29 25 29 24 28 9 9
19 18 15 15 16 14 9 3 3 5 4 2 7 7 6 5 6 3 4 5 4 5 2 1 4 5 4 13 21 19 15 12 6 9 4 12 27 36 37 35 28 27 43 40
18 18 15 14 15 14 8 5 4 6 6 7 5 6 4 5 4 5 3 5 5 4 4 2 4 4 7 17 18 21 13 9 13 12 13 15 13 17 34 42 44 35 41 42
15 16 15 15 14 13 10 6 5 6 8 10 8 7 5 5 5 2 3 5 4 3 3 1 6 5 6 6 8 9 12 3 6 11 15 19 18 20 22 27 33 44 51 55
14 14 14 15 15 14 11 7 3 4 8 13 10 10 8 7 4 3 3 3 3 4 4 5 6 4 6 6 4 9 9 8 6 5 7 11 16 26 28 30 31 31 38 32
12 12 13 14 15 15 11 7 3 4 7 9 11 12 10 8 5 6 5 4 3 5 6 6 5 4 4 5 6 8 9 11 10 4 3 1 6 6 9 15 18 19 25 24
10 12 12 12 13 14 12 9 4 3 6 9 13 13 11 12 8 5 7 7 4 4 6 5 3 5 5 7 7 6 8 8 5 4 6 16 17 6 5 10 14 13 17 21
10 12 11 11 13 14 13 12 8 1 4 9 11 13 13 12 9 8 8 7 6 5 6 5 3 2 2 3 3 7 8 9 8 4 3 4 2 6 9 11 7 7 13 16
9 11 11 11 14 16 16 13 9 6 2 6 8 12 13 11 10 9 9 7 9 7 7 5 2 1 2 2 3 6 7 9 13 12 7 10 10 11 10 3 7 18 17 18
10 13 12 12 14 16 19 17 12 8 4 4 5 5 9 8 9 11 9 10 9 10 8 4 4 3 4 4 6 3 5 4 6 7 6 6 8 9 7 13 15 17 17 19
10 12 11 12 14 17 19 17 18 14 10 8 5 3 4 9 10 10 14 12 4 8 8 9 6 6 5 5 4 5 5 8 4 7 5 8 19 16 15 18 18 19 21 18
12 14 12 11 14 16 20 16 23 21 12 15 11 5 1 2 6 13 10 11 12 12 8 9 8 7 6 7 8 11 12 15 17 19 11 11 11 20 27 24 20 14 10 14
13 15 13 12 13 15 17 19 17 19 26 24 20 15 10 5 2 6 13 15 11 10 9 10 10 7 6 10 12 18 18 20 23 28 29 31 29 26 23 17 16 18 19 17
14 15 14 13 12 10 13 16 16 17 17 20 19 17 14 11 9 8 7 13 15 11 12 12 10 8 10 13 14 4 5 12 19 27 27 31 31 25 26 25 18 13 15 14
15 16 14 15 13 11 9 12 11 11 9 9 8 14 17 18 14 6 8 2 11 13 10 11 11 10 9 8 5 6 13 22 28 34 32 31 31 32 25 28 23 19 15 14
12 13 13 16 17 15 14 13 10 9 11 8 5 6 12 17 14 7 5 4 3 9 14 17 18 16 14 11 5 13 20 24 23 22 25 24 25 27 26 27 32 27 20 18
15 12 10 13 12 13 14 16 18 12 16 10 12 9 10 18 15 12 9 7 5 6 9 7 6 6 4 0 14 18 23 24 19 19 22 23 22 22 23 21 29 36 27 21
16 12 11 9 9 8 8 9 12 15 18 13 13 18 13 19 19 15 11 6 4 2 0 2 2 3 4 18 22 25 27 28 26 24 22 25 26 27 26 24 22 35 31 24
14 12 11 8 6 4 4 4 4 4 13 13 15 16 18 20 19 14 9 4 5 3 0 2 9 21 19 22 24 26 27 28 28 28 24 20 22 26 28 22 20 27 37 23
15 12 8 7 4 4 4 3 2 1 1 7 11 14 17 19 20 15 9 5 5 3 2 3 6 16 19 21 23 25 27 30 32 28 30 26 25 24 20 13 18 18 25 18
14 11 9 7 6 5 5 4 2 2 1 5 8 12 15 15 17 12 10 4 4 3 8 2 2 16 21 22 21 23 26 27 29 32 30 27 22 18 15 12 15 17 27 23
14 11 8 5 6 6 6 6 3 2 5 7 10 13 15 13 13 6 4 1 0 8 3 4 7 16 23 26 26 25 26 28 28 27 30 30 24 19 16 13 13 16 14 11
12 7 7 5 4 4 4 2 6 9 11 12 11 11 11 13 11 4 4 3 3 4 6 8 9 21 28 30 31 30 30 30 30 31 28 28 28 22 20 18 16 17 18 17
7 5 4 5 3 5 8 12 15 15 15 14 13 14 13 11 7 5 4 4 4 7 8 13 20 28 32 36 32 30 31 31 32 32 33 28 27 27 22 22 20 18 20 17
8 8 9 5 7 9 9 10 13 14 15 15 14 9 6 7 5 6 6 6 8 11 17 24 29 33 37 38 36 37 34 31 32 34 35 34 28 25 23 19 26 24 22 21
8 11 5 1 7 11 11 11 12 15 16 13 9 4 5 6 7 8 8 11 17 22 28 32 35 39 41 41 40 39 38 34 30 32 34 34 32 27 23 21 20 22 27 24

GFSNW_700_spd_051.txt.gz
Wind_Speed
23 21 19 18 17 17 16 11 8 9 6 6 6 7 6 6 5 5 7 7 9 12 10 9 6 7 4 12 15 11 9 11 15 16 16 24 25 23 25 14 5 9 5 10
21 19 17 16 15 16 15 10 9 5 4 3 8 7 9 9 5 3 4 5 7 10 8 4 5 7 8 10 12 12 10 7 10 6 8 14 21 27 25 28 20 15 8 5
19 18 15 15 14 14 14 10 7 3 2 2 6 8 6 8 6 6 4 6 7 7 6 3 5 6 5 11 13 11 11 10 5 9 4 10 22 27 28 27 23 22 38 37
17 16 14 12 12 12 12 9 6 3 1 5 7 6 5 6 6 5 3 4 3 3 3 5 6 6 6 11 15 16 10 8 9 4 5 7 9 13 18 33 39 35 42 41
14 14 12 10 9 10 11 9 9 4 6 8 7 7 6 8 5 5 5 4 5 3 2 3 5 5 7 5 11 14 17 4 8 12 14 15 18 20 21 26 25 32 39 47
12 12 10 9 8 10 10 8 6 4 6 10 9 8 8 9 7 4 4 2 2 4 5 5 6 4 6 3 4 5 8 6 2 3 5 7 13 14 18 26 28 28 32 28
10 9 9 8 8 9 9 8 4 4 7 12 12 10 9 8 6 5 4 5 4 6 7 8 6 4 5 3 4 3 4 6 5 2 2 1 3 5 8 12 11 12 15 18
8 7 7 6 7 8 8 6 4 3 7 10 13 11 9 9 8 5 5 6 4 7 8 6 5 5 5 5 6 6 7 7 4 2 6 11 11 3 6 5 4 4 8 12
6 6 6 5 7 10 11 7 3 1 6 10 11 11 11 9 10 7 5 6 6 7 8 7 4 4 4 4 4 6 7 8 6 2 2 3 1 11 9 7 4 15 16 17
3 2 3 7 9 12 13 9 5 3 7 8 10 10 10 9 9 6 9 6 7 5 6 6 3 3 5 4 4 5 6 5 10 8 5 7 6 8 6 2 8 16 16 18
3 1 5 9 13 15 17 14 11 8 8 9 8 8 8 8 9 7 8 7 7 8 7 5 3 3 5 4 4 2 4 3 5 6 6 4 2 8 6 10 13 18 19 21
6 5 9 12 15 17 20 19 17 15 11 11 8 4 3 6 6 7 9 7 4 7 7 7 5 4 3 4 2 3 4 7 3 5 3 7 18 18 12 15 19 26 22 15
9 8 10 14 15 18 20 20 24 16 16 17 12 8 5 3 3 9 7 9 9 8 5 7 6 4 3 4 5 7 8 11 10 13 13 16 16 15 21 28 31 26 22 20
11 12 14 16 16 16 18 17 17 19 20 24 21 17 13 10 5 2 8 13 9 7 5 6 7 5 4 5 7 10 14 15 16 18 19 22 21 20 26 31 32 26 20 20
14 16 16 15 15 14 15 15 15 16 16 19 18 16 16 14 10 12 6 6 9 10 8 6 5 5 5 6 6 1 3 9 19 27 27 30 25 19 18 22 28 31 28 21
18 16 18 17 16 14 14 14 12 10 7 9 11 15 18 16 14 9 9 8 1 9 9 7 6 7 7 5 2 5 11 19 25 30 30 29 25 23 24 26 24 22 32 27
20 21 21 23 22 19 17 19 16 12 12 8 7 9 15 17 12 8 6 4 3 1 5 10 11 13 14 14 7 7 14 18 20 21 25 24 22 25 25 26 26 25 21 30
23 20 19 18 17 16 17 16 17 16 16 14 11 8 14 17 16 11 9 4 1 1 2 1 2 2 1 3 12 12 15 16 19 20 19 24 27 26 26 29 30 28 29 29
22 20 16 14 13 12 13 13 12 12 14 8 11 14 11 18 19 14 8 4 4 4 4 6 6 9 5 7 10 12 16 21 23 24 26 23 26 25 24 27 30 31 26 20
24 20 18 15 11 9 8 6 3 4 10 10 10 11 10 13 15 15 7 3 2 3 6 11 9 7 4 6 10 12 17 21 25 26 27 29 27 28 22 25 25 25 23 23
23 19 15 14 11 9 6 4 3 3 2 2 5 7 8 10 11 9 5 2 2 3 3 3 6 1 4 8 11 14 16 18 22 24 27 29 32 32 31 25 22 21 18 17
21 16 13 12 9 4 5 5 5 4 4 1 5 8 10 9 9 5 3 3 5 5 6 5 7 7 4 8 12 17 19 20 21 24 26 29 31 31 31 31 26 23 19 16
19 16 13 7 8 6 5 7 5 4 1 6 8 10 13 8 7 7 5 5 4 5 5 5 9 11 7 12 18 20 23 24 24 24 27 29 30 32 32 30 32 26 21 19
18 13 10 7 4 5 5 6 4 5 8 10 10 11 10 12 9 6 5 5 5 5 6 5 13 19 14 20 29 32 31 26 24 25 26 28 30 32 32 33 32 31 26 23
17 10 7 8 9 6 2 5 9 10 10 11 10 12 13 12 8 6 6 5 5 6 6 10 15 18 22 28 33 36 36 32 30 31 32 30 30 31 32 32 33 33 33 28
14 9 14 16 11 8 5 4 4 6 9 10 10 8 6 5 5 6 6 4 4 7 13 17 22 28 32 35 38 37 37 37 37 35 31 30 29 31 33 31 29 31 33 27
11 18 16 11 6 3 5 8 9 10 11 9 7 4 4 5 6 6 6 7 15 22 26 31 35 38 40 40 38 37 36 37 36 35 34 33 32 32 31 30 26 26 30 27

GFSNW_700_spd_054.txt.gz
Wind_Speed
23 23 22 17 13 13 13 10 6 9 5 6 10 10 9 8 7 8 8 5 9 7 8 11 4 7 8 15 12 15 7 9 14 15 18 19 22 15 18 13 6 6 4 6
21 21 19 16 12 11 11 9 7 3 1 7 11 11 11 8 6 4 6 7 10 10 7 5 7 8 10 15 13 10 9 10 11 7 13 19 23 27 25 20 17 10 9 4
20 20 16 13 11 10 9 7 4 3 2 9 11 10 8 10 8 8 6 10 10 9 7 7 7 9 10 14 14 11 8 14 8 9 6 12 20 25 28 25 17 24 26 22
19 18 15 11 9 9 7 5 2 3 2 9 11 9 10 9 9 7 8 7 5 6 3 7 8 7 8 11 14 13 9 8 7 8 7 8 6 16 24 29 30 25 25 27
17 17 14 9 8 8 7 5 5 3 6 10 11 10 9 9 7 7 7 7 9 6 7 5 9 7 10 7 13 15 12 5 10 10 10 11 13 15 18 20 24 28 30 34
16 15 12 8 7 7 6 4 5 5 8 12 12 10 10 10 7 6 6 7 5 6 7 8 9 7 6 4 5 8 10 10 4 3 5 6 10 12 14 18 22 23 22 23
15 14 11 6 5 5 4 3 3 6 9 13 14 12 10 11 10 6 6 6 6 5 8 10 8 7 8 7 6 7 6 8 5 3 2 3 2 3 5 8 8 6 8 10
14 13 9 6 4 4 2 2 4 7 10 12 14 12 12 10 9 8 7 7 6 9 8 7 6 6 5 5 5 5 6 6 4 3 6 6 1 2 3 3 4 3 5 9
14 11 6 3 2 2 2 4 5 8 10 13 15 15 12 10 11 9 7 8 6 8 9 6 3 2 3 4 4 6 5 7 5 1 2 1 1 7 6 4 9 5 9 13
15 10 5 4 4 5 6 7 7 9 9 13 14 14 13 12 10 9 7 8 9 9 10 9 5 4 6 3 4 5 4 4 6 6 4 4 3 2 3 3 4 10 11 16
15 9 8 8 9 11 11 11 12 11 9 12 12 11 12 10 10 9 8 9 10 10 11 9 8 7 9 6 6 4 5 3 3 4 5 6 8 4 6 10 17 20 18 22
15 12 12 13 13 15 16 16 18 16 10 15 12 9 8 8 10 10 10 7 10 11 11 9 7 6 8 8 4 7 4 7 2 5 3 6 10 20 21 21 24 23 24 24
17 17 17 15 17 18 22 20 21 21 19 19 14 12 8 5 7 8 10 12 10 8 8 7 6 4 6 4 6 7 7 9 10 10 11 16 19 22 25 30 32 32 36 38
20 22 20 17 17 18 23 21 24 23 23 26 21 18 14 11 7 3 10 13 10 9 7 8 8 7 5 5 5 7 10 11 13 16 15 18 17 17 24 28 30 32 34 36
25 25 22 20 19 18 22 22 17 14 14 21 22 17 12 10 8 11 5 8 9 10 8 8 9 9 7 7 5 7 6 5 10 15 17 21 20 20 19 21 21 21 23 20
27 26 24 23 20 19 22 23 19 17 14 15 19 16 12 9 7 8 6 6 4 7 9 9 9 7 6 5 7 5 8 9 13 16 17 19 20 20 21 22 25 25 22 24
30 29 28 25 23 20 19 19 20 20 17 15 11 14 16 11 8 7 5 2 2 2 5 9 9 9 11 12 13 10 3 7 10 14 17 14 15 20 22 24 23 21 21 24
33 32 32 29 29 26 23 23 22 20 17 13 8 10 13 15 11 8 5 4 3 2 3 5 6 6 8 5 5 3 4 5 7 11 14 18 20 19 22 24 23 21 22 23
37 37 35 31 26 22 21 20 17 13 12 9 8 7 6 10 12 10 6 4 4 1 3 4 4 7 4 5 2 2 4 8 12 15 16 17 19 21 23 26 26 24 22 22
36 34 32 28 24 21 18 16 13 10 12 11 9 8 5 5 8 9 4 2 2 3 3 4 5 7 6 6 6 6 9 11 13 15 16 18 19 20 22 24 26 29 26 23
36 32 26 25 21 17 9 7 6 5 5 5 4 3 4 5 6 7 3 3 2 3 5 6 6 9 10 7 4 5 8 12 17 19 21 23 25 26 24 22 23 27 28 26
32 24 25 22 15 7 5 7 6 6 6 6 1 2 5 6 6 4 4 5 4 4 8 6 5 12 16 11 6 9 13 16 19 23 25 26 28 30 31 29 26 23 25 26
29 27 19 12 7 5 6 8 7 8 8 3 3 7 9 6 5 6 6 5 5 6 6 6 10 14 19 18 15 15 21 26 28 29 30 30 30 31 32 32 30 27 26 25
27 18 16 7 6 6 7 7 7 6 3 6 9 11 8 10 8 7 5 6 6 5 7 8 12 16 22 24 24 25 31 35 39 38 34 31 31 33 34 35 34 33 29 27
18 14 9 9 7 8 8 6 4 5 5 6 9 11 11 11 8 6 7 5 6 7 6 8 12 15 20 24 29 36 42 45 41 37 37 36 35 34 32 35 37 37 35 30
19 12 9 11 14 12 10 7 5 4 4 3 4 5 5 5 5 6 7 5 5 5 10 14 17 21 26 33 39 44 42 41 39 37 36 33 31 32 32 31 32 35 36 32
15 14 15 20 18 13 9 5 4 4 6 5 4 2 3 5 7 6 7 9 15 16 20 25 31 35 39 41 40 40 39 37 33 30 26 25 26 29 30 31 31 32 31 30

GFSNW_700_spd_057.txt.gz
Wind_Speed
25 24 22 20 19 14 10 8 5 4 5 8 11 12 9 10 7 8 6 4 7 4 6 5 2 6 7 10 7 11 7 6 12 14 14 15 15 14 15 9 5 6 4 2
23 24 20 17 18 13 8 6 5 1 6 8 8 9 9 8 6 4 5 5 5 10 6 3 5 5 10 15 12 6 8 7 10 6 11 15 14 18 12 14 12 6 5 3
23 21 18 16 16 12 6 4 3 3 7 11 15 10 7 8 7 6 6 8 8 7 3 4 7 6 13 15 13 9 6 9 5 5 4 10 17 20 18 18 11 16 19 17
24 18 15 15 13 11 7 4 5 2 8 14 15 12 11 8 6 6 6 4 4 3 1 4 5 9 12 14 12 10 6 6 6 2 2 8 6 13 20 21 27 19 17 18
21 17 16 14 12 12 8 8 7 7 10 15 15 12 11 8 8 10 4 4 4 4 4 5 4 4 7 7 13 13 10 4 8 5 5 5 7 7 9 16 18 19 19 22
19 18 16 13 12 11 8 8 9 8 11 16 12 12 14 12 10 7 9 10 4 6 5 4 6 6 9 4 5 11 11 8 5 3 7 7 9 11 13 13 12 12 15 14
22 20 16 12 11 10 8 8 10 12 14 16 15 15 15 14 11 10 9 8 7 5 6 7 6 6 4 6 6 7 8 10 6 1 2 3 2 4 3 5 5 3 6 5
23 21 15 12 10 9 9 9 11 14 15 18 18 17 15 14 12 9 8 8 8 8 10 7 4 2 2 3 5 6 8 4 2 3 6 3 2 1 1 2 4 7 8 10
26 21 14 13 10 9 9 9 12 13 13 21 20 18 17 16 15 11 9 9 8 11 10 4 3 3 2 2 2 6 6 6 5 1 3 3 4 5 6 6 11 14 9 12
23 19 14 12 10 8 8 10 12 13 14 18 21 21 19 16 16 11 9 10 10 10 7 5 4 2 5 3 5 4 3 4 9 9 6 5 10 9 5 5 6 12 14 18
25 20 15 13 11 10 11 13 13 14 12 18 18 16 17 16 14 12 9 9 11 10 8 5 4 2 6 4 6 6 6 5 5 6 5 8 9 10 8 10 16 19 22 25
26 17 16 14 14 13 14 15 16 18 14 18 17 13 15 14 13 12 12 11 10 11 11 10 7 7 7 7 5 11 6 11 7 7 6 9 10 14 18 23 27 30 31 30
25 19 19 18 17 17 18 19 19 21 18 20 17 14 12 12 12 13 13 13 7 12 11 9 9 5 9 6 8 8 13 11 10 9 13 17 17 19 24 28 29 29 29 29
23 22 23 21 21 23 23 21 24 22 13 26 21 17 13 11 8 10 11 13 12 11 10 11 11 9 9 12 10 13 13 9 12 16 18 20 19 20 24 28 29 31 30 26
26 26 26 24 24 26 28 26 28 27 12 26 23 18 14 14 11 8 6 11 11 11 11 11 12 13 11 11 12 13 14 13 9 9 16 19 18 20 21 22 22 23 27 28
28 29 27 26 25 29 31 28 22 27 24 24 23 15 13 11 9 8 7 6 6 8 11 11 12 11 10 7 7 11 8 10 11 10 9 11 13 15 15 19 20 21 22 24
34 33 28 26 26 29 29 26 29 24 28 27 19 13 14 12 9 7 6 4 5 5 7 9 9 10 12 14 11 16 15 12 11 11 11 10 12 14 15 16 18 20 19 19
37 34 29 28 27 23 24 28 27 24 14 11 9 15 14 13 11 9 7 5 4 5 5 6 8 9 12 9 11 8 7 11 12 12 14 17 16 16 16 18 20 20 20 21
39 34 31 29 27 27 28 26 22 17 9 7 10 12 9 9 9 8 6 5 4 4 6 7 6 9 7 7 8 9 8 9 11 12 11 13 16 18 21 23 23 23 22 22
40 37 37 32 30 28 25 21 14 10 10 9 13 9 8 5 4 3 1 3 4 4 6 6 10 13 11 11 11 12 12 11 11 13 15 18 21 25 26 28 29 29 28 27
44 43 40 36 32 27 18 10 7 7 7 8 10 8 5 2 0 3 2 3 4 4 6 7 6 8 14 15 15 14 13 13 14 16 19 24 28 31 34 34 34 35 34 32
46 41 37 37 26 9 6 9 8 6 6 10 8 4 1 2 4 4 5 5 5 5 6 6 5 10 14 18 19 17 17 18 19 23 28 33 38 41 42 39 38 39 38 37
41 36 36 21 10 8 9 10 8 8 10 10 5 1 5 5 5 5 5 5 6 5 6 5 11 12 14 19 22 23 24 25 28 33 40 44 42 39 38 38 38 39 40 41
34 28 16 9 8 9 8 9 7 10 11 6 4 6 5 7 6 5 4 6 5 4 5 7 12 11 13 17 22 27 31 35 39 42 47 47 45 41 37 35 36 37 38 40
21 11 9 13 12 11 10 7 8 8 6 4 3 4 6 6 5 4 5 4 5 6 7 8 8 10 13 18 23 27 33 41 44 43 42 38 34 33 29 26 28 30 32 34
15 10 14 18 15 11 7 9 9 9 7 3 2 2 3 3 3 5 6 5 6 9 10 11 15 19 23 30 35 38 39 39 37 35 34 32 29 29 31 29 36 36 34 34
12 18 19 17 11 12 15 13 11 8 5 2 2 1 2 3 5 7 9 12 15 15 16 19 24 30 36 37 36 34 32 32 32 31 30 29 28 29 32 34 35 31 29 33

GFSNW_700_spd_060.txt.gz
Wind_Speed
28 25 25 22 19 14 10 6 4 1 4 9 8 9 9 8 8 11 9 11 9 5 4 5 3 5 6 9 10 9 6 6 9 17 9 16 17 10 10 5 3 1 2 2
29 25 25 20 18 12 8 6 3 4 6 9 6 8 8 8 4 2 7 8 11 11 6 2 6 3 8 10 16 10 8 4 7 6 8 11 14 14 16 14 10 5 1 4
24 27 22 20 15 10 8 6 5 7 10 13 12 8 5 6 8 8 9 9 11 8 3 3 5 5 10 13 10 10 6 9 1 4 2 9 23 21 17 13 6 11 16 12
35 26 23 18 14 10 9 7 6 6 11 16 18 13 9 7 6 7 10 7 7 5 4 6 6 5 11 13 9 9 7 7 6 4 4 7 7 13 20 22 25 11 20 18
24 26 22 17 13 11 10 11 8 9 14 16 16 13 13 10 9 10 5 6 6 7 7 5 6 6 6 5 11 9 7 6 7 4 4 3 4 8 11 17 19 17 18 20
27 26 16 14 12 11 10 9 9 10 13 18 16 14 15 14 12 10 11 11 5 5 4 4 4 6 8 6 5 9 6 5 4 2 5 8 8 11 14 13 16 15 15 14
23 23 17 14 12 11 10 12 12 14 16 21 18 17 15 15 14 11 11 11 7 6 5 7 7 7 4 4 5 8 8 7 7 1 2 1 3 4 5 13 14 13 15 20
29 27 19 14 13 12 12 13 14 16 15 21 19 18 19 17 15 11 10 9 7 8 9 10 6 5 3 0 4 7 7 5 3 4 7 3 4 6 8 9 10 11 13 14
27 30 16 14 14 12 14 12 15 18 20 24 20 20 18 17 16 12 10 9 9 10 10 6 4 4 3 4 2 4 7 9 5 1 3 2 10 6 6 7 11 13 14 14
26 25 15 15 14 14 14 15 18 17 17 17 22 24 24 21 17 13 12 11 10 13 10 6 3 2 3 2 3 3 5 4 8 7 5 4 5 9 6 6 4 5 9 16
30 29 20 17 15 15 15 15 18 17 16 19 22 19 22 18 18 14 13 12 12 12 8 6 4 3 5 3 3 3 3 1 3 5 4 5 7 8 8 8 11 15 18 22
27 32 20 17 16 15 17 17 17 19 18 18 20 19 19 18 17 15 14 12 13 12 10 8 6 5 4 6 2 9 7 9 5 4 5 7 8 10 13 19 22 25 29 30
32 24 23 19 16 16 16 18 19 21 17 22 21 20 19 18 18 17 15 13 9 14 12 8 7 5 6 4 8 7 9 11 13 13 11 15 15 18 22 25 26 27 30 32
38 27 23 18 18 19 20 20 22 22 23 19 22 18 17 16 16 16 15 14 11 11 12 12 11 9 8 12 11 10 13 11 12 12 16 18 19 21 24 25 27 27 27 29
33 24 22 20 19 21 25 24 23 23 16 25 24 20 16 14 14 15 15 14 13 11 12 12 11 11 10 11 12 14 15 17 16 16 12 14 17 17 18 19 19 20 22 22
28 25 24 23 25 27 29 28 24 20 23 26 24 20 17 14 13 13 13 12 11 10 11 11 11 10 8 6 9 14 12 13 10 12 14 16 16 14 15 16 18 20 21 22
30 29 27 26 27 29 30 26 22 28 26 21 19 16 16 14 13 13 13 11 10 8 6 7 6 8 10 14 17 12 11 15 18 15 13 13 15 16 17 15 15 18 21 23
33 31 29 29 30 31 22 29 31 26 22 12 8 17 16 15 14 12 11 10 9 8 6 5 7 9 11 8 11 10 11 10 10 12 12 13 15 14 15 18 22 24 27 27
34 34 32 32 32 29 29 28 30 19 9 7 14 17 17 14 14 12 10 8 7 6 6 7 6 10 8 9 10 10 8 11 11 14 15 14 15 17 20 22 25 29 32 35
39 36 34 34 30 25 29 26 22 11 7 8 17 12 15 12 11 8 6 6 5 4 6 7 10 16 15 13 14 13 13 14 15 14 14 16 17 19 22 27 34 39 41 41
42 39 36 32 26 30 25 13 11 9 7 11 14 12 9 8 5 3 2 2 3 4 4 6 5 8 13 16 17 17 18 18 18 18 20 23 27 32 37 42 44 44 43 40
41 35 30 33 29 16 7 13 8 9 7 15 14 11 8 5 2 2 3 4 4 4 4 5 5 10 12 13 17 19 20 20 21 24 28 31 38 43 47 49 50 47 44 40
38 26 34 28 11 10 10 12 10 9 14 17 13 8 4 2 2 3 4 4 5 4 5 4 9 8 10 12 16 19 21 24 27 30 34 39 44 47 47 44 39 38 36 33
31 25 22 13 8 9 10 15 9 11 16 15 9 3 2 2 3 4 4 5 3 3 4 4 8 8 7 9 13 17 21 24 30 36 40 41 39 37 33 32 34 32 33 31
23 14 12 13 14 19 17 14 12 14 12 7 4 2 2 3 3 3 4 3 4 5 5 6 8 9 12 15 19 24 30 33 34 33 33 32 31 31 30 31 31 31 34 34
21 10 14 21 22 15 12 11 9 8 7 7 4 2 2 3 3 3 4 3 3 7 11 12 14 17 21 25 29 31 31 30 29 29 30 30 30 31 31 30 30 31 35 34
13 17 29 27 20 16 11 5 6 12 10 6 3 1 2 1 2 2 4 7 13 16 17 19 21 24 27 30 30 28 27 26 26 28 28 28 29 31 32 32 31 33 34 35

GFSNW_700_spd_063.txt.gz
Wind_Speed
29 34 29 28 29 12 14 9 8 8 8 11 9 13 10 9 9 8 12 13 13 9 7 6 5 6 5 11 11 9 4 8 11 10 8 15 12 12 6 1 1 3 3 3
39 35 26 34 22 14 12 10 10 11 12 11 14 13 14 10 11 9 14 11 15 11 8 6 5 5 10 9 13 10 9 6 8 4 6 14 18 16 16 10 5 3 3 5
35 34 24 33 28 11 14 12 12 15 16 14 16 16 13 12 8 11 9 14 15 9 5 4 8 9 9 9 9 11 9 10 5 8 4 11 19 20 20 18 11 8 7 17
28 33 28 29 23 13 15 15 12 12 18 20 19 16 10 13 14 13 16 13 14 11 7 8 8 7 10 13 11 10 8 9 7 6 6 9 12 21 21 21 23 17 23 19
25 29 27 32 29 16 16 16 12 14 14 18 20 18 17 14 13 17 11 8 12 10 11 5 8 11 11 10 13 9 7 8 7 7 5 6 8 11 17 26 24 24 23 23
33 26 22 23 28 19 14 15 13 14 18 23 21 21 20 16 13 12 13 11 10 8 7 5 6 9 8 8 12 12 11 7 9 4 5 5 8 12 13 15 16 20 23 21
27 25 30 30 21 18 13 14 14 16 19 20 21 20 18 16 18 15 17 12 11 11 11 10 10 9 5 4 6 10 9 9 8 4 4 0 3 4 8 17 17 17 20 21
25 24 27 20 20 18 17 17 17 17 17 22 22 18 18 18 16 12 14 10 8 12 14 16 10 8 6 5 5 6 7 9 5 3 4 2 5 6 9 12 14 17 19 18
27 22 27 20 20 18 20 19 20 19 19 28 24 21 18 20 18 15 14 12 12 14 12 8 5 4 4 4 6 6 6 6 5 6 3 3 3 5 7 9 11 13 16 16
21 14 25 29 20 20 21 20 23 22 21 22 24 23 24 22 20 17 15 14 15 15 13 9 6 5 6 6 5 7 9 8 10 8 3 1 5 8 7 8 7 7 8 11
14 17 31 23 21 21 21 21 22 24 20 16 22 21 23 21 21 20 19 17 15 18 14 9 6 6 7 7 6 6 5 5 5 6 4 5 4 6 6 8 9 12 18 23
18 25 27 22 20 21 21 20 21 23 23 15 22 22 21 18 16 16 17 13 18 15 12 9 7 7 8 9 7 9 7 7 5 5 6 6 8 9 11 14 17 22 25 27
19 26 29 20 21 20 17 18 20 23 22 14 24 24 22 20 19 16 13 14 16 13 13 11 8 6 9 10 11 9 8 10 10 9 10 13 15 14 16 19 20 22 24 24
19 22 37 21 22 19 19 19 22 24 19 14 25 23 22 21 20 19 17 15 12 15 14 13 10 8 8 10 9 10 11 10 8 12 15 16 17 15 16 16 17 17 17 18
20 32 35 23 22 20 21 21 21 22 19 13 25 22 21 20 19 18 17 16 14 12 12 11 11 12 9 10 12 13 15 15 14 14 14 14 13 14 13 12 13 16 17 16
27 37 28 25 24 23 24 24 23 20 15 18 23 19 19 18 18 18 18 17 16 14 14 12 14 12 10 6 8 8 9 12 14 13 12 13 15 16 15 15 16 16 15 18
32 28 28 26 26 26 25 20 23 21 17 21 20 19 18 17 16 16 16 16 15 14 12 13 11 11 13 14 14 10 10 10 11 13 16 16 15 15 15 15 14 15 17 20
32 29 29 30 30 30 21 22 21 25 21 16 9 15 20 19 17 17 15 15 14 13 12 10 11 11 11 8 10 11 11 13 13 14 14 16 15 16 16 17 18 18 20 23
31 30 30 32 33 22 21 23 29 24 13 7 13 19 20 20 18 17 15 13 12 10 11 12 8 11 9 10 9 9 10 12 13 14 15 17 18 19 20 22 25 27 30 35
34 31 36 35 26 21 26 29 25 16 8 8 19 19 17 20 18 15 11 9 8 5 10 9 11 14 16 14 14 14 14 14 15 17 19 21 22 24 26 29 33 40 43 43
39 39 35 34 26 31 22 13 16 7 6 13 21 14 17 16 13 10 7 4 5 4 5 6 5 9 10 11 13 17 16 17 18 21 22 24 27 31 34 36 39 41 39 35
39 34 35 29 26 14 7 13 10 10 8 17 18 17 14 13 9 5 6 4 4 2 3 5 4 7 7 8 11 13 16 18 20 22 24 28 31 35 40 39 37 35 33 31
37 30 32 25 12 12 11 14 12 11 14 22 20 17 13 10 6 5 4 3 4 3 4 3 2 6 7 8 8 10 11 14 19 22 27 33 36 34 33 32 30 31 31 30
33 24 18 13 8 10 13 20 17 11 18 23 19 13 8 7 6 4 4 4 2 3 3 2 7 8 8 8 9 11 15 20 26 29 29 27 27 26 25 26 26 28 29 30
22 10 12 10 12 20 21 13 14 16 21 17 14 10 7 7 5 5 3 3 3 4 4 10 12 12 12 13 15 19 23 26 25 24 23 22 23 24 23 24 26 28 29 30
22 9 15 15 24 23 20 19 18 17 16 14 11 7 5 4 5 4 3 1 1 7 15 15 16 16 16 19 22 25 26 23 22 20 21 21 23 26 28 29 30 32 34 35
16 13 23 26 29 23 12 16 12 12 13 12 6 5 3 5 4 2 1 4 13 16 18 19 18 19 21 24 25 25 22 20 18 18 20 24 27 30 32 33 31 33 33 33

GFSNW_700_spd_066.txt.gz
Wind_Speed
20 17 26 30 28 28 23 14 13 13 14 18 13 12 12 13 16 12 10 12 15 10 10 8 7 8 8 13 11 10 8 10 10 9 7 10 10 9 6 2 3 3 2 2
17 16 34 30 28 22 21 20 16 15 19 17 16 19 14 12 13 14 16 10 10 12 10 8 8 11 15 15 12 7 10 9 9 3 8 14 14 15 13 7 5 3 2 6
27 25 36 37 28 26 27 19 17 20 22 17 22 22 19 16 13 12 17 16 13 9 4 9 12 16 11 12 10 8 7 13 6 10 4 10 20 20 18 17 7 7 4 13
23 45 25 33 21 25 26 21 16 14 24 24 24 24 20 18 19 15 16 15 14 13 6 12 13 10 14 13 14 11 7 8 8 6 2 6 10 15 18 19 20 11 11 17
18 17 23 32 30 25 31 26 13 17 12 22 27 21 18 19 18 23 17 17 16 12 10 2 12 12 16 9 14 11 9 11 10 7 5 6 6 10 18 19 20 21 16 16
23 25 29 31 29 16 13 20 18 15 22 30 29 22 22 20 19 18 15 13 11 10 8 8 8 12 12 10 13 11 7 9 8 5 3 3 4 8 11 13 21 25 24 23
22 23 29 29 32 20 17 17 17 17 27 29 24 26 22 19 20 17 15 15 12 12 11 10 11 11 7 6 9 10 7 7 5 2 1 2 2 3 9 14 14 15 16 19
3 16 29 26 20 19 22 22 19 17 23 24 24 26 24 21 18 16 15 12 12 15 14 15 11 10 9 7 5 8 11 8 4 3 5 3 6 7 7 8 13 17 19 20
21 19 23 30 21 22 26 25 21 19 19 30 25 24 20 20 22 20 17 13 15 18 19 10 6 5 5 6 8 9 10 10 7 9 4 7 6 9 9 9 15 16 19 20
22 25 26 28 21 29 28 25 23 20 19 30 27 25 24 21 21 21 20 18 19 19 15 9 7 5 8 7 9 11 11 10 10 9 6 6 11 9 8 8 7 10 13 15
27 24 29 26 29 29 30 25 26 23 20 27 28 23 21 21 22 20 20 20 21 20 14 10 6 7 10 8 8 10 12 11 11 12 7 8 12 13 12 9 10 11 13 16
26 22 23 27 27 28 29 26 27 25 22 20 27 22 20 20 20 20 17 15 19 15 16 10 7 8 10 10 8 12 10 9 8 10 8 7 7 9 10 12 14 15 18 20
21 21 25 30 28 27 27 26 26 26 22 11 24 24 21 19 16 18 15 17 15 14 17 9 8 7 11 11 13 12 13 12 11 11 13 14 14 14 11 15 15 14 15 13
19 17 30 28 27 26 24 24 25 26 21 11 25 24 23 21 18 17 15 17 13 15 14 11 9 8 8 12 10 13 13 11 13 17 16 15 16 16 14 13 12 12 13 13
20 20 31 24 25 24 24 23 23 24 20 8 26 24 21 22 19 19 17 16 14 12 15 14 14 13 11 11 13 14 15 16 14 14 13 15 16 14 14 15 17 17 16 16
21 23 30 26 26 25 25 26 27 24 22 6 25 23 23 21 19 19 19 17 16 14 13 14 14 12 10 7 10 12 14 14 15 15 16 15 15 15 17 17 17 18 18 17
20 27 31 26 26 26 26 21 26 23 17 11 15 18 21 20 19 19 18 17 17 16 15 15 14 13 15 17 15 10 9 10 12 13 14 15 17 18 18 19 19 19 21 22
24 30 26 26 28 26 21 18 24 22 17 14 7 12 20 19 19 19 18 16 15 15 14 13 14 14 13 10 13 12 13 13 13 15 16 17 16 17 19 20 21 22 24 27
28 29 25 27 30 24 22 26 23 24 13 7 7 19 20 21 19 17 16 14 14 12 15 15 10 15 11 14 12 10 11 12 13 15 15 16 17 19 21 23 26 29 32 36
34 30 33 34 27 26 28 24 23 14 10 6 12 23 18 24 22 18 13 11 11 6 13 13 16 20 19 18 16 14 14 15 15 17 17 18 21 24 25 28 32 36 38 40
38 40 38 30 29 28 20 15 12 10 7 9 19 18 19 21 19 16 12 4 6 5 7 8 6 9 8 9 11 12 13 15 16 18 19 21 23 25 29 31 34 35 33 32
38 36 34 34 25 14 7 15 11 10 9 17 23 18 20 20 17 11 9 6 4 4 4 6 3 2 5 6 6 8 10 12 14 17 19 22 26 30 33 33 31 30 30 30
38 37 31 25 11 12 10 14 12 10 15 25 23 22 19 17 11 6 5 4 4 3 4 3 2 6 8 9 9 9 10 12 15 19 23 28 29 28 28 27 27 28 29 29
38 22 17 12 8 10 11 22 22 13 18 25 23 20 15 11 10 5 4 5 3 3 3 3 6 11 12 12 13 13 15 17 21 25 26 25 24 22 20 21 24 28 29 30
25 10 10 11 11 18 20 24 20 13 22 25 22 18 9 10 6 6 5 5 4 4 3 8 14 15 15 15 15 17 19 22 24 23 23 22 20 19 20 23 26 29 31 32
22 10 12 15 19 21 23 22 18 19 25 23 18 12 5 7 5 6 5 4 4 4 11 15 16 17 16 17 19 21 23 24 23 22 21 19 21 22 21 20 24 26 28 30
14 15 19 19 24 23 21 21 21 21 20 19 10 8 7 6 5 5 4 3 8 11 13 15 16 17 17 20 22 24 24 24 24 22 22 22 24 23 23 25 26 29 31 35

GFSNW_700_spd_069.txt.gz
Wind_Speed
33 14 5 24 15 21 31 29 14 16 17 20 19 14 11 15 21 15 9 13 13 8 6 4 4 9 7 13 11 11 9 14 11 12 12 13 13 8 5 2 4 4 3 1
24 21 3 17 31 12 31 25 17 21 20 22 22 16 13 16 22 14 15 12 11 11 7 2 7 9 15 11 7 6 9 11 10 4 6 11 11 11 8 3 6 6 3 2
19 21 13 28 26 26 32 25 16 24 23 20 20 19 16 20 15 15 18 14 13 11 5 4 8 12 13 9 6 7 6 12 5 7 3 6 11 12 10 7 3 4 2 8
16 20 13 19 21 26 29 18 11 15 17 25 22 23 18 18 19 15 17 15 13 12 7 7 14 9 12 11 7 5 5 8 6 7 3 4 5 12 14 13 12 6 6 9
20 9 17 19 19 20 25 16 6 15 10 24 26 27 23 20 20 21 20 17 14 10 12 3 16 13 14 10 12 9 7 10 10 8 5 4 2 9 11 13 12 14 12 15
16 15 18 32 26 22 27 16 11 13 15 28 28 30 25 21 20 19 17 17 13 9 7 7 10 13 14 9 13 11 7 11 9 4 3 1 2 7 10 14 18 18 21 19
14 12 26 22 25 22 29 14 12 12 24 28 27 22 20 19 19 19 18 16 11 11 9 10 14 12 9 10 11 8 6 7 7 4 5 0 4 6 10 14 14 15 19 23
5 7 19 20 23 27 24 19 15 14 24 27 26 21 22 19 20 13 14 15 12 12 10 13 10 8 7 7 9 10 9 9 4 3 5 4 6 9 9 11 14 16 18 18
2 8 8 18 21 28 31 21 16 13 26 32 24 25 24 22 20 16 15 16 14 15 14 9 4 4 5 6 6 7 10 11 8 5 2 5 4 10 10 10 15 15 16 16
5 10 13 18 19 27 30 24 18 14 29 31 25 25 23 22 20 19 18 16 17 17 16 8 4 3 7 4 7 10 9 8 9 7 6 5 11 9 9 7 4 3 7 10
9 10 14 17 20 26 27 25 21 18 19 29 27 24 23 20 20 20 20 18 19 19 14 8 4 4 9 6 8 6 10 7 7 8 5 7 9 12 12 9 10 11 12 15
12 4 9 19 25 35 28 26 22 19 14 27 28 24 22 20 20 19 15 17 17 15 14 9 7 6 7 9 6 11 9 11 5 8 5 7 5 12 12 16 16 17 19 19
15 4 9 19 27 31 29 24 24 20 16 19 26 23 19 18 20 18 15 18 7 19 17 10 8 6 7 9 12 10 15 12 14 11 14 15 13 14 16 18 19 20 21 19
12 7 11 24 28 27 27 23 25 20 17 10 26 23 20 19 18 17 18 17 10 16 12 15 9 8 6 10 10 10 14 12 16 19 18 17 17 17 19 19 19 18 16 18
8 14 20 32 27 26 27 24 25 23 17 5 20 23 22 20 18 17 17 16 15 14 14 14 13 11 9 10 13 14 16 18 18 19 17 18 17 18 19 19 18 18 20 21
15 17 26 25 24 24 25 24 25 25 21 1 19 22 23 22 20 19 18 15 16 14 14 14 16 14 11 7 11 15 17 18 19 20 21 19 19 18 17 18 19 21 21 22
19 27 28 26 25 26 27 19 24 25 19 5 12 14 22 22 21 19 18 17 16 15 15 15 14 13 15 21 21 15 12 11 14 15 17 17 16 17 19 21 21 21 23 25
25 34 29 27 26 26 20 17 25 24 14 11 4 8 21 23 21 19 18 16 15 16 16 15 15 16 17 12 15 15 16 17 18 18 17 17 18 18 18 19 21 23 26 29
30 33 29 26 25 23 19 18 26 20 14 6 4 7 17 23 21 19 16 14 14 12 14 16 12 14 11 13 12 11 12 13 14 16 16 16 16 17 19 21 24 27 29 33
33 30 26 25 25 20 23 26 22 19 12 8 6 12 14 23 22 18 14 11 11 5 11 12 17 24 21 20 18 16 16 16 17 18 17 17 17 19 22 25 28 32 35 37
32 31 29 28 24 29 19 13 13 10 7 10 9 18 13 21 21 17 12 4 6 5 7 9 5 7 6 6 8 11 13 14 15 16 16 17 19 22 25 28 32 35 34 33
33 30 29 33 26 10 7 14 9 9 9 10 17 21 19 21 18 10 9 5 5 5 4 6 4 4 3 5 6 8 11 13 13 15 17 19 23 27 31 33 32 31 29 28
33 31 32 22 12 12 10 16 12 9 11 17 24 21 21 19 13 7 5 5 5 3 5 4 5 2 8 10 10 10 12 13 15 18 21 24 27 31 31 30 29 29 28 29
36 28 17 12 9 11 8 16 19 10 15 24 22 22 16 17 13 6 4 5 4 4 4 3 3 9 13 13 14 15 15 16 18 22 26 28 29 28 27 28 28 30 31 28
29 12 11 11 9 14 15 23 24 11 20 27 23 21 13 15 6 5 5 4 4 4 3 4 10 13 15 16 16 17 18 21 23 26 28 28 29 30 26 26 30 32 28 27
24 9 10 12 15 18 18 25 23 15 24 28 24 18 7 8 5 6 6 4 4 4 6 12 14 16 17 18 17 19 21 24 27 28 28 29 30 30 29 30 32 33 31 31
16 12 16 15 17 17 22 26 20 22 29 28 18 11 9 6 6 6 6 5 6 10 12 14 16 17 18 18 19 21 24 27 28 29 31 32 32 33 34 36 36 35 33 34

GFSNW_700_spd_072.txt.gz
Wind_Speed
28 26 23 22 8 22 9 24 22 24 25 29 28 16 12 17 21 18 10 9 11 7 5 3 5 6 7 12 12 8 8 15 13 16 17 16 10 5 4 3 1 6 5 2
27 25 19 12 16 15 12 26 21 27 31 21 25 19 14 18 24 18 11 11 9 10 7 4 10 13 14 11 10 6 9 12 9 5 6 12 9 8 5 10 8 5 4 3
24 22 18 10 25 12 18 22 22 27 30 16 22 21 18 21 20 13 14 12 8 8 4 5 11 16 9 7 10 8 5 12 3 7 6 10 10 12 9 6 4 9 5 11
21 20 13 5 17 16 24 20 16 24 27 21 23 21 21 22 21 16 15 13 11 8 4 5 10 15 13 8 7 6 9 9 8 9 6 5 7 11 12 11 8 6 9 8
16 11 8 3 9 10 15 10 8 17 4 24 26 21 19 24 22 21 18 13 10 5 3 2 11 8 12 8 7 5 5 9 7 6 4 3 3 6 12 11 10 9 7 10
15 4 14 14 10 24 15 9 7 13 11 28 27 21 22 18 19 20 16 11 9 6 6 2 8 9 9 5 8 5 4 10 8 4 3 1 3 7 10 11 11 12 14 14
10 9 16 9 9 21 21 9 9 1 16 28 22 24 21 17 16 17 17 14 9 7 6 7 7 9 8 5 7 5 4 6 6 4 5 1 3 7 10 12 12 13 15 17
8 3 4 11 13 16 18 13 9 1 13 24 17 21 21 17 15 15 14 14 9 10 7 9 6 6 5 6 8 6 5 6 3 3 4 8 8 8 9 9 10 13 14 14
8 10 5 21 18 17 17 15 10 4 21 25 22 18 18 18 17 18 15 13 11 11 11 6 3 3 4 5 5 9 10 9 7 2 0 4 4 4 6 7 10 10 11 11
17 16 4 11 18 24 23 17 12 10 19 26 21 21 20 17 18 16 16 15 13 11 10 4 2 2 5 2 3 4 6 8 9 7 4 5 7 5 6 3 3 4 4 8
12 12 3 12 20 27 25 18 12 20 13 24 21 20 21 18 16 15 16 15 15 14 10 5 2 1 5 4 4 3 6 4 5 7 4 5 5 6 8 7 9 10 11 12
14 9 7 14 17 26 26 19 16 20 9 23 22 21 20 16 15 14 11 9 11 10 10 6 5 3 3 6 3 9 5 8 3 6 4 5 6 7 9 13 15 16 17 20
11 12 3 16 20 24 25 21 18 19 6 20 22 22 19 16 15 13 13 13 4 13 12 6 6 4 4 5 9 9 10 11 12 10 9 12 14 13 14 15 17 20 22 23
6 5 6 12 19 27 25 23 18 16 13 14 23 21 16 17 17 15 14 12 13 8 13 11 10 7 6 8 10 8 11 12 13 16 16 16 17 17 17 19 21 23 23 23
7 4 4 16 21 27 22 22 19 16 10 9 24 20 17 18 17 17 16 15 14 9 12 11 14 12 11 12 13 15 14 15 16 18 17 18 18 18 19 21 22 22 22 23
3 2 11 20 17 21 22 18 21 19 14 2 18 21 21 19 18 15 14 14 13 14 10 13 14 15 12 9 10 11 11 15 18 20 20 20 20 20 20 21 21 22 24 25
6 8 22 23 20 22 25 18 20 21 14 2 10 9 22 20 19 17 16 14 12 13 13 14 14 13 14 21 25 20 20 19 17 16 17 19 19 19 20 21 22 23 23 25
13 14 22 20 20 20 21 15 16 20 16 6 4 5 16 21 21 19 17 16 14 14 15 15 14 16 18 16 16 11 13 15 16 18 20 20 20 21 21 21 22 23 25 28
15 20 22 20 19 20 18 13 18 22 14 6 5 7 9 21 20 19 15 15 13 14 15 16 14 18 12 11 10 11 13 14 15 17 18 19 20 21 22 22 24 27 29 33
19 28 22 20 20 17 14 14 20 19 15 10 7 7 10 18 21 18 12 9 11 5 10 12 17 25 22 21 21 20 18 17 17 18 18 20 20 21 23 24 27 31 33 37
30 30 24 21 20 15 14 10 13 12 8 12 13 10 9 16 20 15 12 4 5 4 6 7 6 8 7 8 8 10 11 13 14 16 18 19 20 22 24 27 31 35 38 38
31 28 19 23 18 9 7 11 10 9 12 8 16 13 14 18 18 12 11 4 4 5 5 5 4 6 4 5 8 9 10 12 14 16 17 19 22 25 28 32 35 36 37 36
28 22 24 16 12 12 10 14 12 11 13 12 17 23 20 20 12 7 7 5 5 4 5 4 5 5 5 11 11 11 12 14 15 17 19 22 25 29 33 34 36 38 38 34
26 21 18 15 10 11 13 16 19 14 11 13 23 22 17 17 14 5 5 5 4 4 4 4 5 6 12 14 14 15 15 16 18 20 22 26 28 30 32 34 37 38 37 36
20 16 12 16 12 8 15 15 21 16 14 23 25 23 12 17 7 7 5 5 4 5 5 5 6 12 15 16 16 17 18 19 21 23 26 29 31 33 32 33 35 36 38 38
22 15 11 19 17 14 19 19 24 16 21 29 24 15 8 9 6 7 7 5 5 4 6 8 13 15 17 17 18 19 20 21 24 27 29 31 33 34 35 35 36 38 40 39
18 25 15 16 21 18 21 20 27 21 31 32 13 12 10 7 7 8 6 6 8 8 11 13 16 17 17 18 19 20 22 24 26 28 30 33 35 37 38 39 38 38 39 39

GFSNW_700_spd_075.txt.gz
Wind_Speed
29 29 29 30 22 15 7 12 22 27 30 30 28 22 11 14 22 16 13 9 13 12 6 4 4 4 4 9 9 5 8 13 7 8 11 12 7 6 6 3 3 6 4 3
25 27 26 21 6 4 5 14 24 25 26 17 25 20 12 18 21 15 14 11 9 10 7 4 6 10 10 7 6 7 12 11 7 5 5 7 5 5 8 10 7 4 3 5
23 24 20 10 13 2 0 20 21 24 25 12 21 16 16 18 18 10 12 14 9 10 5 5 10 13 7 8 7 9 9 14 3 6 4 6 5 5 4 3 3 4 4 13
20 19 13 6 16 4 2 10 18 23 29 14 21 17 17 23 21 12 13 12 9 7 3 6 9 9 9 7 6 6 10 7 10 11 8 7 7 6 6 3 1 2 2 2
16 13 9 11 19 1 4 8 12 17 17 20 16 14 16 23 18 19 14 13 10 5 5 4 9 8 7 4 4 6 5 9 10 9 7 6 6 10 12 9 7 8 4 7
15 8 7 9 17 11 10 3 3 13 4 24 16 12 19 19 14 17 13 11 8 6 5 6 7 7 7 2 2 2 2 8 5 4 5 4 3 4 7 10 7 7 7 7
11 6 12 12 11 10 4 6 10 2 14 26 16 13 14 15 13 16 14 11 7 7 5 8 4 7 5 2 3 2 4 4 4 3 2 3 2 1 5 6 6 8 9 10
10 8 8 3 9 6 15 2 5 7 26 24 17 19 15 15 13 17 11 9 6 7 6 6 4 5 3 4 4 3 3 3 4 2 1 4 3 3 4 4 4 6 8 8
13 11 6 2 4 3 11 7 2 5 28 16 22 19 13 13 15 16 13 11 8 7 7 4 3 2 2 2 1 6 6 4 2 2 1 1 1 2 2 4 3 5 7 8
16 15 12 9 6 12 12 7 8 19 14 18 20 19 16 16 16 15 14 12 10 7 5 3 2 2 2 1 1 2 4 6 5 4 3 4 4 4 2 2 1 2 2 4
15 16 6 4 13 12 12 10 9 16 13 19 17 15 16 17 12 13 13 12 12 9 6 3 2 2 1 1 1 1 2 2 2 4 4 4 2 4 4 5 6 8 10 11
17 13 8 10 17 16 13 10 14 11 17 18 17 14 13 12 11 9 9 4 8 6 6 2 1 1 2 2 2 3 2 4 1 5 3 3 5 6 8 9 11 12 14 17
17 12 10 12 14 14 12 9 12 12 5 16 15 14 14 12 11 9 7 7 3 5 4 1 1 2 3 3 4 6 5 8 8 7 6 7 8 9 11 13 14 16 19 22
15 12 11 11 11 17 15 11 12 11 11 10 16 16 15 14 12 12 10 7 8 6 3 7 7 4 4 6 7 8 8 9 10 12 12 14 13 14 16 17 18 20 22 23
14 13 10 8 15 18 17 14 13 12 4 10 17 15 12 12 13 13 12 11 9 8 8 8 8 10 11 13 16 16 13 13 14 17 15 16 16 17 19 20 20 22 22 23
14 13 12 14 17 16 14 15 14 14 5 6 16 15 14 14 14 13 13 12 11 11 10 8 12 11 12 10 12 8 6 7 9 14 15 17 18 18 19 20 21 22 23 25
12 11 16 17 17 18 16 10 13 13 10 1 10 8 20 17 14 15 13 12 12 11 12 13 12 13 15 22 25 17 16 16 16 18 18 18 19 19 20 21 22 23 25 27
13 15 20 18 17 15 16 9 8 14 13 4 3 5 11 19 17 17 15 13 12 12 13 13 14 15 16 12 8 7 7 9 11 13 14 16 17 19 20 21 22 24 26 29
18 21 20 18 14 12 12 10 9 14 15 5 6 7 4 16 18 17 14 13 12 13 15 14 13 16 11 9 11 12 13 14 15 16 15 16 18 20 21 22 24 26 28 31
19 20 20 14 12 11 11 11 9 14 19 18 12 8 10 10 20 17 13 8 11 6 8 9 14 20 15 17 18 17 15 14 14 14 14 16 18 20 21 23 25 29 33 37
23 21 16 13 15 13 10 8 10 12 7 14 19 15 10 11 19 17 12 4 6 5 5 6 6 6 5 5 4 5 8 10 12 14 16 17 19 21 22 25 29 33 37 41
25 20 12 15 17 8 9 8 9 8 11 10 13 16 14 14 19 14 12 7 6 5 5 5 4 5 4 3 5 8 9 11 13 15 16 18 20 23 25 29 33 36 38 39
22 18 16 12 12 13 10 14 12 13 10 11 11 18 17 17 15 8 9 7 6 5 6 5 6 5 5 6 10 11 12 13 14 16 18 19 22 26 29 32 35 37 39 39
21 14 17 13 10 12 20 15 17 16 6 7 12 18 18 18 15 6 6 8 6 5 6 4 6 5 6 11 13 14 14 15 16 17 19 22 25 27 31 35 37 38 39 39
16 15 13 20 15 11 12 17 15 18 16 10 16 25 12 19 8 8 7 7 5 6 4 4 5 6 11 14 15 15 16 17 18 20 22 26 29 32 33 34 35 37 38 38
19 16 15 17 22 18 13 19 16 19 17 14 25 21 8 10 7 9 9 6 6 4 4 6 8 11 13 15 16 16 17 17 20 22 26 29 32 35 36 36 36 37 37 38
34 22 23 15 19 23 18 19 19 21 19 25 18 13 10 7 9 10 9 8 7 6 6 9 11 13 14 15 16 16 17 20 23 25 28 32 35 37 38 38 37 36 37 38

GFSNW_700_spd_078.txt.gz
Wind_Speed
29 30 32 20 12 4 14 23 23 25 34 34 29 22 9 13 23 14 11 9 17 12 11 10 6 4 5 9 4 2 4 6 4 6 7 8 10 9 6 3 2 6 7 6
27 29 25 12 12 9 14 21 34 21 28 14 19 19 8 20 17 12 12 12 12 13 12 8 10 7 8 6 2 3 5 7 4 4 5 6 9 12 13 11 8 5 1 7
25 24 18 15 14 14 8 35 24 25 20 13 17 15 12 22 12 14 15 16 14 12 11 10 13 10 6 5 6 4 6 5 4 5 4 2 3 5 7 10 7 7 6 16
21 19 15 11 15 18 8 20 27 26 12 15 17 11 15 20 12 15 16 13 13 9 9 13 15 9 9 8 5 4 7 7 10 11 8 6 4 2 3 7 7 5 7 9
16 13 8 7 15 15 9 11 23 9 17 22 13 11 13 19 11 16 11 17 12 9 13 9 14 10 7 5 7 8 5 6 8 7 6 6 5 3 2 1 3 5 7 7
14 15 17 8 5 15 18 14 18 13 18 20 14 10 16 16 11 12 16 11 10 11 11 10 9 6 5 5 5 5 5 7 3 2 3 3 4 4 2 1 1 2 3 4
12 11 16 19 9 7 14 15 12 13 23 18 12 14 16 13 10 18 15 12 7 12 12 10 5 5 3 4 3 4 5 4 3 3 3 2 2 2 1 1 2 2 2 4
15 14 13 18 16 7 9 11 8 15 30 19 18 16 15 12 13 13 11 10 10 11 11 10 8 7 5 3 3 4 4 4 3 2 2 1 1 1 2 2 3 5 8 9
15 12 6 5 9 8 8 7 9 24 25 20 20 16 13 12 16 14 13 11 10 9 9 5 3 2 3 2 1 3 2 1 1 2 1 0 2 2 1 1 4 4 5 6
17 15 9 8 12 12 11 10 17 23 18 22 20 17 14 14 14 12 13 11 9 7 5 5 4 3 3 2 2 3 1 3 2 2 1 2 2 1 1 1 2 2 2 3
15 17 16 15 14 15 15 17 17 10 20 19 17 13 12 13 12 11 11 8 5 5 3 3 3 3 2 2 1 2 2 2 2 3 2 2 1 1 1 2 4 6 7 8
12 14 17 16 16 12 12 13 12 13 15 18 15 13 12 10 8 5 8 3 5 3 2 2 1 1 1 1 2 1 2 4 2 4 4 3 4 5 7 8 9 10 12 13
13 15 14 12 12 11 12 12 13 15 11 15 15 15 13 10 8 7 7 3 4 4 3 1 1 1 2 2 3 5 5 6 7 6 3 5 7 9 10 12 13 14 15 17
11 13 11 9 9 9 11 8 10 7 13 9 13 15 15 12 10 8 8 6 5 3 2 7 7 5 4 5 7 8 8 8 7 9 9 10 11 12 13 14 15 17 18 20
7 11 10 8 10 10 10 8 8 6 3 7 14 13 12 13 12 12 11 10 8 7 7 8 8 9 10 13 15 13 10 12 12 14 12 13 14 15 15 16 17 18 19 22
9 11 7 8 13 11 11 9 8 6 2 8 13 11 13 12 16 14 13 12 11 11 10 10 10 10 10 8 9 6 8 8 8 10 12 13 14 15 16 17 18 20 21 24
14 12 10 11 12 12 12 7 7 10 5 1 7 6 16 14 14 16 14 13 11 12 12 14 14 11 13 19 21 12 12 12 12 13 14 15 16 17 17 18 19 21 24 27
16 15 14 13 13 12 12 7 4 9 9 6 3 5 8 16 16 14 14 12 11 13 14 13 13 15 16 9 4 4 5 6 8 10 12 15 16 17 18 19 20 23 25 28
18 19 20 17 14 12 11 9 5 6 13 5 7 6 5 9 18 15 14 13 12 14 17 16 13 17 11 7 9 10 11 12 13 13 13 14 16 17 18 20 22 24 27 30
20 21 20 17 15 12 13 11 9 9 15 19 16 9 10 6 13 16 12 9 11 7 9 10 16 22 15 16 15 15 14 12 12 12 13 14 15 17 20 22 24 28 31 34
21 22 19 16 16 14 10 6 6 7 6 11 17 20 14 9 11 17 12 5 6 5 6 7 6 5 5 6 6 6 6 8 10 12 13 15 17 19 21 24 27 31 34 39
20 20 16 16 17 9 9 8 8 9 8 11 13 17 19 14 13 15 12 8 6 6 7 6 5 5 4 4 5 6 8 10 11 13 14 16 18 20 23 26 30 34 36 39
21 22 16 11 10 13 10 14 11 12 12 5 12 14 20 14 17 10 8 8 8 5 7 6 8 6 6 6 7 10 11 12 13 14 15 16 19 22 25 29 34 36 38 39
21 21 14 11 10 10 19 17 15 15 10 7 11 15 18 16 19 9 7 9 7 6 8 7 6 5 7 7 9 12 12 13 13 14 16 18 21 24 28 33 36 38 39 39
22 18 11 16 15 11 9 16 17 15 18 11 8 18 16 17 10 9 8 7 7 9 8 7 5 6 7 9 11 12 12 12 14 15 18 21 23 26 30 34 36 38 38 37
25 23 20 15 17 20 15 12 16 15 16 15 12 18 8 12 8 10 11 7 7 7 8 6 6 7 8 9 10 11 12 13 14 16 19 23 27 30 33 34 36 36 36 34
30 37 40 33 14 18 24 19 15 17 19 21 16 13 11 8 11 13 13 17 9 8 6 6 8 8 8 8 10 12 12 13 15 19 22 26 29 33 36 36 35 33 32 32

GFSNW_700_spd_081.txt.gz
Wind_Speed
32 28 26 30 21 19 24 33 32 25 24 36 29 12 10 17 20 18 4 8 8 6 5 7 5 7 6 6 4 5 5 5 5 3 6 9 14 13 8 5 5 7 13 5
25 21 24 27 21 16 16 28 30 22 31 19 19 14 17 19 16 10 9 6 6 8 7 5 8 8 9 5 5 4 4 4 1 2 6 12 9 15 14 8 7 7 3 9
22 18 23 26 19 12 13 30 24 25 6 21 13 15 15 17 9 8 9 11 11 8 7 9 9 10 7 9 9 8 8 8 6 8 4 5 7 13 16 10 10 11 9 15
20 18 26 27 21 13 19 25 28 12 20 16 14 13 14 11 9 12 15 8 6 5 7 12 10 10 9 10 9 8 8 9 13 10 7 6 7 10 12 15 12 12 9 10
20 16 13 20 23 12 14 24 20 20 21 18 15 15 14 10 15 10 9 10 8 10 9 7 9 8 8 7 8 6 6 5 7 9 6 6 8 7 7 9 10 9 8 9
18 23 18 13 21 21 23 15 16 20 21 14 17 12 13 12 10 12 13 11 11 11 12 10 8 7 7 7 7 6 4 3 3 2 3 4 3 7 5 4 5 6 3 2
13 18 22 17 16 24 17 16 23 17 16 13 16 18 15 13 10 16 12 12 8 12 13 10 6 5 4 6 4 5 5 4 3 2 3 1 3 3 2 2 1 2 4 5
8 10 15 16 17 19 16 12 20 23 20 17 19 18 13 11 15 12 11 11 12 13 12 7 5 4 4 4 3 3 4 4 2 2 3 2 2 2 1 0 5 4 6 6
10 8 11 14 15 16 17 19 25 24 21 19 21 18 13 13 12 10 11 11 10 9 9 4 2 2 1 2 3 2 1 1 2 2 1 2 3 1 2 1 1 4 5 7
16 15 16 15 16 16 21 24 22 18 22 22 20 17 15 16 12 9 9 9 8 6 6 4 3 1 2 0 1 2 2 3 4 3 3 3 5 4 2 1 2 4 4 5
16 19 19 18 18 20 22 19 16 16 18 21 17 16 14 14 10 7 7 6 3 5 2 2 1 1 2 1 3 2 2 2 2 2 3 3 5 3 2 4 5 7 7 9
14 17 17 14 16 18 15 13 16 18 15 19 16 16 14 11 10 4 7 2 4 3 2 1 1 1 1 2 2 4 2 6 3 5 4 4 4 6 8 9 10 10 12 13
10 12 11 10 12 14 16 14 18 13 15 16 16 16 14 12 10 7 7 3 5 4 3 3 2 3 4 3 6 9 7 9 8 6 6 7 9 10 11 12 14 14 16 17
11 10 9 9 9 10 14 15 10 12 12 9 15 16 15 13 11 9 9 7 5 3 3 5 7 8 7 8 10 11 11 9 8 9 10 11 12 12 13 14 16 18 18 20
11 11 8 6 8 8 9 12 11 11 6 5 12 14 17 16 14 13 11 10 9 8 8 9 11 10 12 14 17 17 11 14 13 9 12 13 15 15 16 18 19 20 21 23
12 13 11 9 9 9 8 8 9 8 1 8 10 10 13 17 16 15 14 13 13 13 13 13 13 11 11 9 10 6 7 10 11 12 12 15 17 17 19 20 20 21 23 25
13 15 14 13 14 12 10 5 7 8 5 4 7 6 15 14 14 18 18 16 16 15 16 18 17 15 15 20 23 15 15 15 15 15 16 17 17 18 18 20 21 22 24 26
13 15 16 17 18 15 13 8 7 9 9 7 5 6 8 11 16 14 16 16 16 17 17 18 16 16 17 13 6 7 9 9 10 11 14 16 18 18 20 21 22 23 25 28
13 17 17 17 20 18 15 11 8 10 13 6 8 9 5 8 13 17 14 15 15 16 20 19 15 20 14 7 10 11 13 14 15 16 16 16 17 18 20 21 22 24 27 30
17 17 16 17 17 15 16 13 13 12 17 21 18 13 11 6 5 15 11 9 10 9 11 11 20 28 18 20 19 19 18 17 15 14 15 16 17 19 21 22 24 26 30 33
17 15 17 17 16 16 13 9 8 8 7 12 17 23 17 11 9 12 11 6 6 6 7 8 8 13 11 11 12 13 13 13 12 14 16 17 18 20 21 23 26 29 33 37
16 13 16 15 13 8 9 8 9 9 7 10 11 15 22 17 9 11 10 9 6 7 8 7 8 14 12 9 9 10 11 11 12 14 16 17 18 20 22 24 28 31 35 39
15 13 14 9 13 16 11 10 9 7 8 4 8 12 18 20 16 10 7 7 9 6 8 7 13 11 10 8 10 11 11 13 13 14 15 17 19 21 23 26 29 33 36 39
17 15 14 12 11 11 19 19 11 14 9 7 7 12 13 17 14 10 6 9 8 7 8 10 9 12 9 10 11 12 13 13 13 14 15 17 19 22 25 28 32 36 38 39
20 12 11 18 21 14 11 14 18 15 11 12 5 12 15 13 9 9 9 7 8 9 10 11 10 9 9 11 12 13 13 12 12 14 15 17 20 23 27 30 34 37 38 38
26 20 17 14 16 21 19 15 11 15 13 13 14 11 8 12 9 10 11 7 8 8 8 10 8 10 10 12 13 12 12 12 13 14 16 19 22 24 28 32 34 36 37 32
23 27 34 31 20 14 16 18 18 16 17 17 12 9 11 7 10 13 15 28 18 9 9 11 12 12 13 12 12 11 11 11 13 15 18 21 24 27 30 32 35 34 31 28

GFSNW_700_spd_084.txt.gz
Wind_Speed
25 28 21 25 27 22 18 25 30 17 15 16 14 7 16 16 14 12 13 14 12 8 6 6 4 2 3 4 5 4 5 7 4 9 15 16 20 19 14 5 6 10 10 5
24 27 22 14 16 12 17 29 34 25 19 8 13 17 15 14 8 7 11 9 9 9 5 6 8 5 6 4 5 4 5 5 3 2 6 14 14 21 10 12 7 21 3 8
23 26 23 17 13 13 14 32 25 21 7 9 17 17 11 14 11 10 13 13 12 10 8 5 6 7 8 8 9 8 10 11 9 6 4 8 10 17 18 15 16 17 9 23
12 18 23 20 19 18 14 30 26 17 16 19 16 14 11 13 16 16 14 9 7 8 8 10 8 8 10 11 8 10 10 12 13 10 7 8 10 14 16 23 13 13 14 15
16 11 19 15 17 20 16 13 28 27 20 17 20 13 15 17 14 15 13 13 10 13 12 8 8 3 6 6 9 8 7 6 8 10 8 8 11 8 9 13 14 15 13 10
18 14 16 18 24 23 17 25 29 25 23 20 16 13 15 11 14 13 13 9 9 9 15 11 9 9 10 9 8 8 6 5 4 2 4 3 4 9 8 8 8 9 4 5
14 16 17 19 20 18 17 22 26 21 22 20 18 15 14 11 12 12 10 12 9 12 10 9 6 5 6 5 4 5 5 5 4 3 4 2 3 4 3 4 4 3 3 3
9 12 14 16 15 17 21 20 21 16 21 19 18 14 11 15 11 9 11 12 11 11 9 9 5 5 4 6 5 5 5 7 4 3 4 1 2 3 3 3 3 2 3 4
12 12 12 12 12 14 19 17 15 19 19 19 19 19 16 10 10 11 10 11 10 8 7 7 2 1 2 3 6 4 2 3 4 3 2 2 3 2 4 3 3 3 3 4
15 15 15 16 19 20 19 18 14 16 19 21 18 18 18 15 11 9 8 8 6 5 7 3 1 3 1 2 5 5 4 2 0 1 1 4 6 4 4 1 2 4 6 7
16 18 16 18 20 20 22 19 15 10 13 19 17 14 13 10 9 9 7 5 3 3 4 1 1 1 3 3 5 5 3 2 3 2 2 4 4 4 3 5 6 8 11 11
14 15 15 16 16 16 16 14 17 13 16 17 16 14 13 9 7 3 5 2 3 2 1 1 2 2 3 4 3 6 5 6 4 6 5 7 7 8 10 11 11 11 13 14
9 15 12 11 11 11 12 16 16 16 8 14 14 14 13 12 10 7 6 4 4 5 4 3 3 5 5 4 6 12 10 10 12 9 9 10 11 12 12 14 15 15 16 18
9 11 13 11 10 10 13 12 10 12 13 7 15 16 15 14 13 11 10 8 7 6 7 6 8 9 9 11 12 15 14 12 10 12 13 14 14 14 14 15 17 19 19 21
9 10 11 13 14 11 12 10 10 12 11 6 14 16 17 17 16 15 13 13 12 12 11 11 11 12 14 17 21 20 15 16 18 17 13 13 13 15 16 17 18 20 22 23
10 12 13 14 14 14 14 12 11 10 7 7 10 13 16 21 20 18 17 16 16 16 16 15 17 14 14 12 14 9 8 10 11 12 12 15 16 18 19 20 21 22 23 24
14 13 14 13 14 15 14 10 11 12 8 5 6 9 15 17 19 20 19 19 19 19 20 22 21 18 20 27 28 15 16 18 18 17 17 17 17 18 19 20 21 22 23 24
17 13 15 15 16 16 15 10 10 12 11 9 6 7 9 11 18 19 17 19 20 22 23 25 23 20 22 20 9 9 11 12 13 14 15 16 17 18 19 20 21 23 24 26
19 14 14 15 16 18 16 14 11 11 14 6 9 9 6 6 10 15 18 17 18 20 25 24 20 25 20 7 10 11 12 13 14 16 18 18 17 17 18 20 22 24 26 28
19 18 15 14 14 16 17 16 14 16 18 23 23 17 15 10 7 8 12 12 11 11 15 14 22 36 25 23 17 15 16 17 18 18 17 16 16 17 19 21 23 25 28 31
18 17 15 13 12 12 15 11 9 8 8 11 15 18 24 16 11 8 8 6 6 6 8 10 9 21 11 16 15 16 17 18 19 17 15 17 18 19 20 22 24 27 30 33
15 16 14 13 8 9 10 9 10 10 7 7 7 9 12 20 13 8 7 9 7 7 8 7 8 14 12 10 11 11 12 15 15 14 17 18 18 19 21 22 25 28 31 35
13 12 11 8 11 17 11 12 10 8 8 5 4 6 9 13 17 8 7 6 8 8 8 7 17 16 9 11 10 10 12 14 14 16 18 18 18 20 21 23 26 29 33 37
14 10 11 9 11 11 17 19 12 14 11 8 7 6 6 10 10 10 6 8 7 6 7 15 16 13 12 11 9 12 14 15 16 17 18 18 19 20 21 24 27 30 34 38
17 10 10 18 19 17 9 10 14 18 17 11 13 8 10 7 9 7 8 6 6 8 8 14 12 9 9 9 12 14 15 16 16 16 18 18 19 21 22 25 29 32 36 39
25 18 16 12 13 16 22 19 13 10 12 15 15 12 6 10 7 8 10 6 7 6 13 15 10 7 10 13 14 15 16 15 15 16 18 19 20 21 24 27 31 34 37 38
22 31 33 30 25 13 15 18 21 19 15 13 12 8 11 7 9 11 14 26 24 25 28 23 16 16 17 16 17 16 16 15 15 17 19 20 20 22 24 28 32 35 36 34

GFSNW_700_spd_087.txt.gz
Wind_Speed
21 16 21 26 20 23 20 19 28 23 19 16 10 20 10 21 15 12 13 18 16 9 9 9 5 5 4 5 7 6 6 3 4 7 11 13 25 18 13 5 7 10 8 5
22 15 11 16 17 14 13 22 26 23 19 24 20 17 17 15 13 13 14 12 13 12 9 8 8 6 5 4 3 2 2 2 3 3 1 14 21 17 11 9 3 9 5 4
19 17 11 15 21 20 23 22 20 16 25 25 24 18 13 16 20 20 18 17 16 11 12 9 7 9 8 8 6 6 6 8 8 5 5 8 10 17 13 12 13 10 11 17
16 18 15 20 20 17 16 19 19 18 23 23 20 12 13 20 21 17 14 15 15 10 9 15 13 9 10 9 7 5 7 8 10 8 6 7 10 14 18 20 12 7 19 12
18 16 16 19 24 23 17 14 23 23 24 22 17 18 17 16 18 16 15 15 12 10 11 12 10 8 6 5 6 5 4 2 7 8 7 9 11 9 12 17 17 17 11 8
17 18 22 24 17 14 21 20 24 22 18 16 15 15 12 13 13 12 13 13 9 8 12 11 12 9 6 4 4 4 2 1 2 2 2 1 3 9 9 11 10 9 2 4
9 12 16 19 22 19 16 19 22 22 18 13 13 12 11 10 10 11 13 13 12 12 9 7 7 7 5 5 5 5 4 2 2 1 2 3 2 4 4 5 5 5 3 5
5 8 12 12 15 19 17 18 17 16 16 13 12 11 11 12 10 9 11 12 10 9 7 6 3 1 1 1 2 3 4 4 3 2 3 1 1 2 2 2 3 4 5 5
3 3 8 11 15 18 16 14 18 15 15 12 13 14 14 12 12 10 10 10 7 5 3 2 1 1 2 2 1 2 1 1 1 1 0 3 1 1 2 2 4 1 1 2
3 4 5 10 15 18 15 13 12 13 11 14 13 11 9 10 7 8 7 6 4 3 1 1 1 1 3 3 4 2 2 3 4 3 3 4 3 4 4 2 2 2 3 4
2 5 7 10 14 15 15 12 13 11 10 14 14 11 8 6 5 5 5 3 1 1 1 1 1 3 3 5 6 6 4 3 2 3 4 4 2 3 4 5 7 8 9 10
3 5 7 9 13 16 14 13 12 12 10 14 14 14 12 10 8 5 6 4 3 2 3 3 3 5 5 7 5 6 5 5 4 5 4 6 7 7 10 12 11 11 12 14
3 4 6 9 10 13 14 14 13 13 14 10 15 16 14 13 11 8 8 7 6 7 7 7 7 7 10 8 9 13 11 12 13 11 7 11 14 12 13 13 14 15 15 17
5 5 7 6 8 9 11 14 15 14 13 12 13 17 16 15 15 13 12 11 9 9 10 11 12 12 12 15 16 20 17 16 14 14 13 15 15 14 14 15 15 16 17 18
5 7 7 10 9 8 11 13 13 13 14 9 14 18 19 18 17 16 16 15 15 14 15 16 17 18 19 22 26 24 17 19 21 21 14 15 13 13 14 14 16 18 19 19
9 9 11 11 12 11 11 12 12 13 14 16 13 13 19 20 22 21 20 20 19 20 21 21 22 20 19 16 21 14 11 11 10 11 12 14 14 15 17 18 18 20 20 21
15 14 13 16 14 15 14 12 11 13 15 15 9 11 17 19 21 21 23 23 23 23 24 26 25 24 24 35 36 24 22 22 21 19 17 17 16 18 18 19 20 20 21 21
17 17 16 15 19 18 17 17 14 14 14 14 9 11 12 12 15 20 19 20 21 25 26 30 29 28 27 26 15 11 12 15 17 17 16 16 15 16 18 19 19 20 21 22
19 18 17 14 17 18 17 19 18 16 14 9 11 11 9 6 8 12 17 20 22 22 24 25 23 28 26 9 9 10 11 11 10 12 14 16 17 18 17 19 20 21 22 23
17 16 13 13 14 13 14 17 18 21 23 29 30 24 19 16 13 10 9 10 8 11 14 16 19 33 24 21 28 24 16 14 14 16 17 18 17 16 17 19 21 23 23 25
15 14 13 14 12 11 11 10 9 8 9 13 15 12 18 20 18 14 8 7 7 6 7 9 8 22 14 13 13 16 21 22 23 21 20 17 15 18 19 20 22 23 25 27
13 14 13 12 10 10 10 10 10 12 10 11 9 9 10 12 14 9 7 8 6 6 6 6 8 12 15 13 10 9 9 11 13 15 14 15 17 19 20 21 23 24 27 29
13 12 10 8 11 15 11 15 14 12 11 9 7 7 7 8 11 8 5 5 7 8 6 7 13 13 15 13 10 8 8 10 12 12 14 17 19 20 20 22 24 26 28 31
15 12 10 9 10 10 16 17 12 15 12 10 9 9 6 8 6 8 6 8 6 6 7 8 13 14 14 12 9 8 10 12 13 15 17 18 18 20 22 23 25 27 29 33
21 11 10 16 16 14 9 11 15 15 15 14 12 12 11 9 8 7 8 6 7 9 5 9 15 17 12 7 7 11 12 14 16 18 18 19 18 20 22 24 26 28 30 34
29 19 15 12 14 16 17 16 13 12 12 11 13 11 7 12 8 10 10 7 10 6 9 14 16 17 13 11 13 14 15 17 18 18 17 19 20 22 23 25 27 29 31 35
24 32 34 32 21 13 15 17 20 19 17 14 11 9 11 8 10 14 18 28 23 23 24 20 18 19 20 19 18 16 18 19 19 18 17 19 22 23 24 26 28 30 33 36

GFSNW_700_spd_090.txt.gz
Wind_Speed
24 17 19 20 20 23 22 18 24 20 13 22 23 31 24 19 19 20 17 15 12 9 9 7 4 5 5 5 6 5 6 4 3 5 10 10 18 14 3 1 2 6 5 5
20 13 16 23 23 21 20 20 21 23 26 26 25 25 21 20 17 16 16 8 11 8 10 6 6 6 6 4 4 3 3 3 5 4 2 8 18 17 8 1 2 4 4 4
17 13 18 23 19 21 11 18 21 24 23 22 21 21 19 20 18 16 15 14 13 12 11 9 8 8 9 8 6 5 4 6 6 3 4 9 11 17 13 4 6 7 10 15
14 13 17 19 17 19 14 21 17 16 18 18 17 19 17 17 16 15 17 15 14 15 14 13 11 11 9 7 5 5 4 3 5 5 5 6 8 12 15 13 10 8 16 12
12 10 15 16 15 13 9 15 22 20 18 18 16 17 15 12 12 12 13 14 10 7 10 11 8 8 6 4 4 3 2 0 2 2 3 4 9 4 9 14 17 15 12 10
12 13 14 15 14 15 10 12 18 15 17 16 15 13 10 9 9 12 11 11 7 8 10 10 9 7 5 4 5 3 2 2 2 2 3 4 2 5 6 8 7 6 4 3
4 12 12 13 13 13 14 14 13 15 15 12 11 12 9 5 7 10 10 9 10 9 7 5 4 2 1 2 3 3 3 1 1 2 4 2 2 1 1 1 1 1 0 3
1 5 9 11 12 13 12 13 13 11 11 10 10 10 8 8 9 8 8 9 6 5 4 2 2 2 3 2 2 2 2 2 2 2 2 4 5 4 3 4 5 6 6 5
4 4 7 10 13 12 12 12 9 9 9 7 8 7 8 8 9 8 7 6 5 3 2 3 2 2 3 2 3 4 5 5 4 3 2 4 3 5 4 5 10 6 5 6
9 6 6 10 13 14 12 9 10 9 5 7 7 6 3 4 3 5 5 4 2 3 4 4 3 3 4 3 3 3 6 6 8 7 5 5 8 7 7 4 2 3 4 5
11 7 6 6 10 13 12 12 12 11 7 9 10 10 8 5 4 4 3 4 5 5 4 4 4 4 4 6 7 8 5 4 4 4 5 5 5 5 6 5 7 8 8 9
9 8 6 7 6 11 12 11 11 12 11 9 14 14 13 12 9 8 7 7 7 4 5 5 5 8 8 9 6 7 6 7 4 6 5 7 8 9 10 12 12 12 12 13
5 7 5 7 8 10 12 14 13 13 13 12 13 17 16 16 16 15 13 11 10 10 10 10 9 8 12 11 11 14 14 14 15 13 7 10 12 13 13 14 13 14 15 15
8 7 5 5 7 10 12 15 18 17 15 15 15 14 18 18 18 18 16 14 14 14 13 14 15 16 16 18 21 27 25 24 19 19 15 16 14 13 15 15 15 15 16 17
12 11 11 9 8 8 11 12 13 16 16 17 16 16 21 22 21 19 17 17 17 18 19 20 21 23 25 29 30 25 11 13 19 23 17 17 15 14 14 14 15 16 18 18
19 16 15 14 11 11 13 13 13 13 16 20 21 17 20 19 21 22 23 23 22 22 22 24 26 24 23 19 28 26 16 15 13 12 11 12 14 14 14 16 17 18 19 19
23 22 20 16 13 14 13 14 13 12 12 15 13 13 10 11 17 20 23 24 24 25 27 30 28 28 27 38 40 25 20 21 22 22 21 18 16 17 16 17 18 19 19 19
23 25 25 22 17 16 17 14 16 18 18 16 9 12 12 11 11 13 15 19 21 24 25 30 28 28 29 31 23 17 14 13 13 18 18 17 15 15 16 18 19 19 19 20
17 22 26 26 21 18 17 16 18 19 19 12 14 15 12 8 8 10 12 15 18 19 22 23 18 26 24 18 22 22 18 12 12 10 9 11 12 15 17 18 17 19 20 21
14 17 23 24 21 18 15 16 17 23 26 31 32 27 23 20 19 15 11 10 8 9 12 12 14 27 13 13 15 21 27 22 12 12 12 13 15 16 16 16 18 19 20 21
15 15 19 20 16 12 14 12 11 11 12 15 20 17 18 15 19 18 9 7 7 6 6 7 8 12 11 16 19 18 18 22 26 21 18 19 18 16 16 17 18 20 21 22
16 16 17 17 13 10 11 10 12 14 12 14 13 10 9 8 8 7 6 7 6 7 8 7 6 9 15 16 16 14 10 8 9 13 15 15 15 15 18 19 19 21 22 24
19 19 15 8 11 16 11 14 13 11 13 11 11 9 8 7 7 6 7 6 8 8 8 7 6 14 18 18 16 11 7 4 5 7 10 12 15 16 18 19 20 22 24 26
23 17 16 13 11 12 22 21 14 17 12 9 9 8 6 8 7 8 6 8 7 7 9 8 9 9 14 16 13 8 7 7 8 9 11 13 15 16 18 19 21 24 28 28
25 14 14 20 20 21 14 13 15 16 15 14 11 10 10 9 8 7 8 6 8 9 8 10 10 12 16 16 11 8 11 14 13 13 15 16 16 17 18 20 22 25 28 29
35 23 16 17 18 18 20 18 15 14 16 15 14 11 7 11 8 8 11 7 11 14 14 16 14 20 20 18 18 17 17 17 17 17 17 17 17 17 18 20 24 26 29 31
34 41 37 29 18 15 19 20 20 19 20 18 13 9 9 8 10 14 19 19 15 19 18 20 20 19 18 19 22 22 22 20 19 19 19 19 18 18 19 21 25 29 30 31

GFSNW_700_spd_093.txt.gz
Wind_Speed
15 17 19 22 21 22 18 15 21 18 20 27 30 26 22 18 16 16 15 12 10 7 8 5 3 3 2 3 2 2 4 3 3 1 5 9 12 17 5 4 2 2 2 4
11 14 19 19 24 23 16 16 24 21 20 26 25 25 23 21 19 14 10 8 7 8 7 4 4 4 3 3 2 4 5 4 6 3 1 5 9 19 7 3 3 0 1 2
10 9 15 14 18 21 17 23 20 18 20 21 22 22 19 17 11 10 11 9 8 6 5 4 5 6 5 5 5 3 2 4 4 2 3 9 14 18 11 3 1 3 5 11
6 3 7 16 18 16 19 16 12 10 13 18 18 18 15 13 12 12 9 9 11 10 6 9 8 7 6 5 4 4 3 2 2 2 4 7 10 13 14 6 5 3 10 9
9 1 2 8 10 9 9 15 16 15 17 16 15 15 12 10 10 9 10 10 8 4 2 6 6 4 4 4 5 4 4 3 4 3 3 6 7 6 5 8 9 7 7 5
5 5 0 3 7 6 9 12 12 12 15 14 11 10 9 8 7 8 8 7 8 6 6 5 3 2 2 4 5 4 4 4 4 3 6 10 7 3 1 2 3 3 1 2
5 4 3 1 1 5 6 8 11 11 10 7 8 9 6 3 4 6 5 5 6 4 2 1 2 3 3 4 5 4 4 4 4 5 8 2 3 3 3 4 3 2 2 3
7 5 4 5 1 1 5 7 6 5 6 7 5 4 5 5 4 4 5 4 2 2 4 6 6 6 7 6 7 5 5 5 4 3 5 12 10 9 7 6 7 8 7 6
7 8 7 6 7 4 3 2 3 4 4 1 1 2 1 1 2 2 3 3 3 4 6 6 4 3 5 4 5 7 7 8 7 4 3 4 3 6 7 9 14 7 7 7
5 5 8 9 9 8 7 6 5 5 5 3 3 2 2 2 3 3 3 4 5 7 7 7 4 4 6 5 5 6 8 9 12 12 7 8 10 9 8 5 3 4 6 8
4 5 5 7 10 13 11 10 9 9 10 8 9 8 7 6 6 6 7 8 7 8 5 4 4 5 5 8 9 11 7 5 4 5 7 6 5 6 7 7 8 9 9 9
5 4 6 7 9 12 15 13 12 13 13 13 13 15 14 14 14 13 11 9 12 6 7 7 7 11 13 12 8 10 7 7 7 7 7 10 11 11 13 13 14 13 13 12
11 7 5 5 7 8 12 15 14 13 15 17 18 17 18 19 19 19 18 17 16 14 13 13 10 10 14 13 15 17 15 14 19 20 9 9 11 13 15 15 15 14 15 16
13 14 10 9 8 7 9 12 14 15 16 18 18 18 18 18 19 21 21 20 20 17 17 17 19 19 18 22 26 34 31 32 32 31 24 22 18 16 16 16 16 16 16 17
17 16 14 14 12 11 10 11 12 12 13 16 19 22 22 22 21 20 21 20 19 20 21 23 23 26 27 31 33 29 11 11 15 18 15 17 19 18 17 16 15 16 18 19
21 20 19 16 15 15 14 14 14 13 14 16 18 13 18 20 23 20 18 20 21 23 25 26 29 26 24 21 32 32 21 19 18 22 20 16 14 13 14 15 17 18 19 20
18 24 22 20 18 17 18 17 13 13 13 13 11 13 7 8 10 11 16 19 22 23 26 29 29 28 28 38 40 29 23 21 21 22 23 22 18 18 17 17 17 18 19 20
16 21 25 25 22 22 22 21 20 18 17 17 9 12 13 10 12 13 12 14 16 20 22 27 28 30 29 23 9 9 10 11 13 15 16 18 18 16 15 15 17 18 19 19
19 18 22 26 26 25 24 24 23 23 21 14 17 16 13 9 9 10 11 13 14 17 19 19 16 24 20 18 20 21 22 23 20 16 12 10 11 11 12 14 16 17 18 19
20 19 21 23 25 25 23 22 23 26 28 32 34 30 26 21 19 16 10 10 9 9 11 12 15 20 7 8 12 16 17 17 19 17 14 13 10 11 13 15 15 16 18 19
23 22 22 21 18 15 15 14 14 14 18 26 29 27 30 28 24 21 10 7 7 6 7 8 8 12 10 12 16 19 19 19 18 20 22 15 14 15 15 14 15 17 18 18
21 24 21 19 18 12 12 12 14 17 15 18 15 15 16 15 15 12 9 10 7 8 10 7 7 11 13 15 17 19 17 15 12 11 16 18 17 15 14 15 17 17 17 18
25 22 19 10 14 20 14 16 16 14 15 16 13 13 14 12 10 9 8 7 8 8 8 8 12 13 11 12 14 16 15 10 7 5 6 8 11 13 16 17 17 17 17 18
28 23 19 15 13 14 29 26 17 20 13 10 12 15 13 12 9 9 6 9 8 7 8 11 12 11 9 9 14 16 12 9 9 12 12 12 14 16 17 18 18 18 18 20
32 20 15 23 25 24 16 19 21 18 18 14 14 14 13 12 10 7 9 7 9 10 9 7 10 13 13 14 16 13 12 12 14 15 16 17 18 19 19 19 18 17 19 21
36 31 28 23 18 26 28 21 18 19 19 19 19 13 8 13 9 12 13 8 11 5 8 10 13 16 17 17 17 15 16 20 20 21 20 20 19 20 20 20 19 18 19 23
45 54 49 34 26 19 18 22 22 20 22 24 15 10 12 9 10 14 17 24 15 12 12 13 14 19 21 22 25 27 27 23 21 22 22 21 21 20 20 21 21 19 21 23

GFSNW_700_spd_096.txt.gz
Wind_Speed
23 22 21 16 15 17 17 24 29 24 23 28 35 29 23 21 19 18 17 12 10 7 8 6 5 2 1 1 1 3 5 4 5 2 7 9 7 15 10 4 2 4 2 4
18 21 21 24 21 21 22 26 22 17 16 29 28 26 24 21 16 12 11 8 7 9 7 4 5 3 1 1 2 5 7 5 7 1 0 4 6 16 12 7 7 3 0 3
15 17 19 18 15 16 16 22 20 17 18 23 23 22 17 16 15 12 10 9 7 5 6 4 4 3 3 4 4 5 5 5 4 2 4 8 10 12 11 1 2 2 3 3
12 10 13 15 12 10 8 11 16 14 15 16 16 16 13 11 12 10 7 7 7 6 4 6 4 4 4 4 4 5 5 5 7 7 6 7 12 10 10 5 1 1 7 5
12 10 10 11 13 10 11 13 15 16 16 15 13 13 12 10 8 8 9 7 4 2 2 2 1 1 1 3 4 5 5 5 9 9 7 11 13 9 5 4 4 4 4 3
9 9 7 7 9 8 7 9 10 10 11 11 9 9 8 7 5 5 4 5 5 3 2 1 1 3 4 4 5 5 5 7 8 5 8 13 11 5 3 2 2 2 3 3
6 8 9 7 6 7 6 7 7 7 7 7 7 6 5 4 3 3 2 2 1 2 3 5 7 8 9 9 8 6 7 8 7 8 9 2 2 5 6 6 6 6 6 6
2 3 6 6 6 2 3 2 2 3 4 4 3 4 4 3 2 1 1 2 4 6 8 10 8 7 7 8 9 9 8 8 6 5 8 16 13 10 9 8 10 11 10 8
2 2 3 5 6 7 3 0 1 1 0 2 1 1 0 1 2 4 5 6 7 8 10 8 4 3 5 3 6 7 9 10 8 6 3 4 4 4 6 9 12 3 3 6
1 3 6 7 8 9 9 6 4 5 7 4 4 4 4 4 5 6 7 9 11 12 10 10 5 4 6 4 5 5 9 10 13 13 8 9 12 10 9 4 4 6 7 8
3 3 6 8 9 10 11 13 12 10 10 11 11 10 10 10 9 9 10 12 9 10 7 5 4 6 6 9 12 13 9 6 5 4 7 7 3 6 7 8 11 12 12 11
8 6 6 9 8 10 13 15 16 16 15 14 15 15 15 16 16 16 16 14 13 9 8 9 10 13 17 14 9 12 8 7 8 8 8 15 20 22 20 18 17 16 16 15
12 11 9 7 10 9 11 14 17 18 19 18 20 19 17 15 16 18 18 17 17 17 17 17 15 14 17 16 17 20 17 14 21 27 14 13 15 18 17 17 17 16 16 16
19 14 13 12 11 10 10 12 15 17 19 21 20 20 19 18 17 19 18 18 20 20 19 20 22 22 19 23 24 34 33 33 32 30 20 17 20 22 20 20 17 16 17 17
17 20 16 16 16 14 13 13 14 15 15 19 18 18 21 24 25 23 23 22 22 22 23 24 25 27 27 31 33 29 10 18 19 22 20 18 15 14 17 19 18 17 17 17
19 20 22 18 18 18 18 15 16 16 17 20 22 15 17 20 21 21 21 23 23 22 25 26 29 27 23 19 29 31 27 27 25 24 24 24 23 18 15 15 16 17 18 18
23 21 22 23 21 20 20 20 16 15 15 17 13 15 12 10 10 13 17 18 21 22 25 29 30 30 29 38 38 23 14 14 17 18 20 21 20 22 19 17 17 17 18 19
26 23 23 23 24 24 23 24 23 23 21 21 13 16 18 17 16 15 14 15 16 23 25 30 29 29 28 26 12 12 16 17 18 19 20 18 17 19 20 18 17 16 17 19
27 25 24 25 24 24 24 25 25 25 26 20 23 24 17 16 14 12 13 14 18 22 27 27 18 25 22 15 19 17 15 15 18 18 19 19 16 14 15 15 15 17 18 17
28 27 26 25 24 21 23 25 26 29 31 38 42 38 32 26 22 19 15 12 11 12 15 15 19 27 20 17 14 13 16 19 20 18 16 19 17 15 14 12 14 15 16 17
31 29 25 25 23 19 19 11 11 11 14 25 37 39 42 36 29 23 12 9 8 7 11 11 10 26 17 16 15 14 15 16 15 16 17 17 18 15 13 14 14 15 16 17
32 31 26 24 23 14 12 10 10 14 11 18 19 18 23 31 30 22 12 14 9 9 13 9 11 25 21 18 13 10 9 12 13 12 10 10 13 16 17 15 15 17 18 18
36 32 28 15 16 21 14 17 16 14 15 14 14 13 16 17 17 13 10 9 9 9 9 9 22 18 15 13 10 9 12 16 12 9 6 5 7 11 14 15 17 19 20 18
37 34 26 16 16 15 28 29 25 24 22 15 11 11 11 14 12 12 7 9 8 8 9 14 11 10 11 12 11 13 11 11 9 11 11 10 12 13 15 17 18 19 19 17
40 28 19 27 33 27 13 15 20 22 24 17 14 15 17 12 10 7 8 7 8 9 7 3 6 9 11 12 13 13 12 12 12 14 17 19 18 18 19 19 20 21 21 19
40 38 35 35 24 26 30 34 24 17 17 18 17 17 9 13 10 10 11 8 9 3 3 7 8 11 14 15 16 18 20 21 23 25 22 20 20 22 23 22 21 22 22 22
40 51 56 53 40 25 23 24 29 24 22 22 17 13 13 10 11 17 22 29 21 13 12 11 12 14 17 20 22 24 25 26 24 22 20 19 20 22 25 24 25 26 24 24

GFSNW_700_spd_099.txt.gz
Wind_Speed
26 26 24 23 23 21 21 24 31 19 20 31 40 34 30 25 21 20 18 14 12 10 9 9 6 5 3 4 3 3 4 4 5 1 4 7 6 8 12 4 2 5 3 5
21 21 22 19 19 19 20 27 26 20 14 33 32 28 24 22 16 14 14 11 12 10 9 5 6 5 4 2 2 3 6 4 6 1 1 1 4 10 13 7 10 5 2 4
19 19 18 18 16 14 14 21 23 22 22 23 23 22 20 18 16 16 14 11 9 9 8 7 5 4 4 3 3 4 6 5 4 4 6 7 5 7 10 5 4 3 4 1
16 17 17 18 17 16 15 14 16 14 16 18 17 17 15 13 13 11 9 10 9 7 6 6 5 3 3 3 5 5 6 5 9 9 9 11 11 7 7 6 8 5 3 2
12 13 14 14 13 13 13 14 14 13 14 13 11 12 12 11 11 10 9 7 6 3 3 2 1 3 3 2 5 6 6 5 14 14 9 12 16 13 12 9 6 5 6 7
8 10 11 11 11 11 10 10 10 9 9 9 8 9 8 8 8 6 5 4 4 3 1 2 4 5 5 6 7 7 6 8 11 5 7 14 16 5 11 9 7 7 8 6
6 5 7 8 8 8 8 8 7 6 6 6 5 5 5 4 4 3 2 1 1 3 6 8 10 11 12 12 12 11 9 9 8 10 11 2 3 4 7 10 10 10 9 8
5 6 4 2 3 4 4 4 3 4 4 4 3 3 3 4 3 3 3 4 6 7 9 11 7 6 7 7 9 11 11 9 6 5 8 18 12 7 10 10 9 12 12 10
8 7 7 7 4 2 2 3 3 3 4 6 6 5 6 6 5 5 5 7 8 10 11 8 4 3 4 4 5 7 9 11 11 7 4 4 3 4 6 9 9 2 2 4
11 10 9 9 9 9 8 7 7 7 6 6 7 8 8 9 9 9 10 10 13 8 11 8 4 4 5 4 4 5 8 11 16 16 10 10 11 9 7 3 3 7 7 8
13 12 11 11 11 12 12 13 12 12 12 12 13 12 13 14 15 15 14 14 9 12 6 6 4 6 5 8 10 13 9 6 6 6 8 7 3 4 6 11 15 15 15 14
12 15 14 14 13 12 14 14 16 17 17 15 16 17 18 19 18 19 20 17 16 9 8 8 9 13 17 17 9 13 9 9 8 9 9 16 24 27 25 18 13 16 16 15
14 14 17 16 16 15 12 13 15 19 20 20 22 21 22 21 20 17 19 19 20 20 19 20 17 15 18 16 18 20 19 19 24 27 16 14 16 22 28 25 23 20 18 17
17 17 17 20 19 18 17 13 13 14 18 21 20 20 22 23 24 23 22 19 21 22 22 23 25 25 20 25 26 34 33 34 34 32 21 17 16 16 16 20 23 20 18 17
17 16 17 21 23 21 20 20 18 16 15 20 21 19 21 24 25 27 27 26 24 25 26 26 27 29 30 34 37 33 17 17 22 27 20 23 22 21 19 16 16 18 18 16
20 18 18 18 20 24 25 23 23 22 20 23 21 14 17 21 24 25 24 23 23 25 26 27 30 27 24 21 33 32 24 23 21 22 24 26 25 23 22 22 19 18 17 16
24 23 20 20 20 21 23 26 23 22 23 21 16 16 11 11 11 12 15 18 20 22 26 29 28 30 28 36 39 25 21 18 17 17 19 16 14 17 20 21 21 17 16 15
24 24 25 22 22 22 22 23 27 26 25 26 14 18 22 22 21 20 19 19 21 25 24 30 31 29 31 33 20 14 15 16 16 15 17 19 19 19 20 19 19 17 16 16
25 24 25 27 24 23 22 22 25 28 27 22 29 32 26 19 16 17 18 19 20 22 29 32 26 30 30 21 20 22 22 19 18 19 19 19 18 17 17 15 14 14 15 16
28 26 27 28 26 25 23 24 24 28 32 38 42 42 39 35 30 21 16 15 13 16 20 22 25 38 31 27 24 22 19 16 17 18 17 19 17 16 13 12 12 11 14 16
28 30 30 28 25 26 25 17 12 11 15 23 29 31 35 32 34 27 14 10 9 10 14 18 16 41 28 22 18 16 13 14 14 15 15 16 15 15 13 13 13 13 15 15
32 33 32 29 26 21 13 12 12 13 13 19 25 20 15 21 23 23 13 14 9 10 11 10 13 21 19 14 13 9 8 8 11 13 13 13 12 11 12 14 16 16 16 16
32 34 31 18 17 20 16 18 16 12 19 21 16 13 13 14 17 12 11 11 11 9 9 10 14 15 12 9 7 7 9 11 11 10 10 10 9 8 10 13 15 17 18 19
37 36 25 16 15 15 27 29 26 27 23 16 11 12 12 14 14 11 8 11 9 8 10 19 19 16 8 9 10 12 12 12 11 11 11 11 12 13 15 17 18 20 21 21
45 24 18 29 38 39 19 14 16 24 22 19 17 16 18 15 12 10 11 8 10 12 9 6 4 5 8 11 13 15 16 16 18 19 19 20 20 19 18 19 20 21 22 23
48 34 40 50 43 34 27 29 31 26 22 21 20 18 10 15 11 12 15 8 12 11 10 9 8 8 9 12 15 17 19 21 23 23 23 21 19 17 16 16 18 21 24 25
38 51 57 53 52 41 28 28 30 29 27 27 20 16 16 10 14 20 22 34 23 8 11 11 12 11 11 14 17 19 21 23 25 26 26 26 25 24 24 24 26 27 27 26

GFSNW_700_spd_102.txt.gz
Wind_Speed
24 22 23 24 22 21 20 27 32 20 19 25 37 34 30 25 22 20 17 15 14 12 12 10 7 7 6 6 6 4 3 2 2 4 5 5 6 5 6 4 2 5 3 5
22 21 20 17 17 14 18 26 24 17 13 32 32 28 25 23 16 14 13 11 13 11 10 7 8 7 6 5 4 3 4 2 3 1 1 3 6 7 7 5 7 6 3 2
19 20 21 21 19 14 15 18 17 16 20 22 23 21 20 20 17 15 14 14 12 12 11 8 6 6 4 4 3 4 4 4 5 4 5 8 8 8 9 5 4 3 11 8
15 16 16 16 16 17 14 16 18 15 16 19 18 18 15 14 14 12 10 11 9 8 7 8 6 3 2 1 3 5 6 6 9 11 13 15 14 12 13 14 10 8 7 10
9 11 13 13 14 14 13 15 14 15 15 15 14 13 13 13 12 11 9 7 6 5 6 4 2 2 2 3 4 5 7 7 14 17 11 13 19 18 18 18 18 17 14 14
4 6 7 9 11 12 11 12 13 12 13 12 11 11 10 9 8 7 7 6 6 4 3 4 6 8 9 9 8 8 8 7 12 6 8 16 18 10 18 19 17 13 16 10
4 0 2 3 4 6 6 7 8 9 9 8 8 8 7 6 6 5 4 5 6 8 9 11 13 14 15 15 14 13 12 11 9 10 12 3 4 5 7 12 15 16 16 14
6 7 6 4 2 0 1 2 3 3 3 3 3 4 4 5 5 4 5 6 7 9 11 14 9 7 7 7 10 13 13 11 7 4 6 19 13 13 10 12 12 13 15 16
7 8 8 10 10 7 6 4 3 3 2 3 4 3 4 5 5 6 6 8 9 13 11 10 4 4 4 4 5 8 10 12 12 6 5 4 4 5 6 7 12 3 4 7
13 9 9 9 12 13 14 12 11 8 8 8 7 7 8 8 8 9 10 9 13 10 11 8 5 6 6 4 5 6 9 11 18 15 10 12 13 10 6 3 3 9 10 9
13 16 13 11 10 11 15 19 19 17 15 14 14 14 15 16 14 14 13 15 9 8 5 4 4 7 6 9 11 13 9 7 8 8 9 9 5 6 6 11 21 20 15 14
14 15 15 16 13 12 13 15 19 23 22 18 16 16 18 18 19 21 21 18 17 10 8 8 8 13 19 20 10 14 10 13 8 11 9 14 18 22 28 29 22 15 15 16
11 13 16 16 18 15 14 15 16 17 21 23 23 21 19 18 19 19 21 19 20 21 20 21 19 18 20 18 17 22 24 22 28 29 17 14 19 26 28 28 30 30 26 22
13 13 14 15 16 19 17 16 17 18 20 24 20 19 16 17 20 21 22 21 22 22 22 24 27 28 22 27 28 35 35 36 33 37 25 23 22 19 18 16 17 20 24 25
16 13 15 15 16 16 18 20 20 20 19 25 26 24 26 25 24 25 25 24 24 25 27 27 29 31 30 33 34 34 20 23 25 30 24 24 21 22 23 23 22 20 16 18
26 24 17 17 18 18 16 19 19 20 23 25 27 22 22 27 31 30 29 27 27 26 28 28 31 29 24 21 34 34 22 23 23 23 20 19 19 20 21 22 22 22 19 18
29 28 24 22 20 20 19 17 19 20 21 22 19 25 20 15 14 15 17 20 22 24 28 32 31 31 29 34 41 29 31 20 19 17 16 15 14 18 18 19 20 18 18 16
27 28 28 24 25 23 22 21 22 22 22 21 14 19 24 23 26 26 28 25 24 27 28 32 33 30 33 42 36 23 14 18 15 16 16 16 19 18 20 20 18 17 16 17
28 25 29 30 28 27 26 25 26 25 24 17 25 27 23 16 15 16 18 19 21 25 28 31 30 38 44 41 29 30 32 30 27 21 17 19 22 19 20 19 17 15 15 15
30 27 28 31 30 29 28 26 28 29 32 38 42 37 35 30 25 22 15 16 15 18 22 24 33 48 42 31 20 17 20 22 17 16 16 18 20 20 19 17 14 13 11 12
25 30 28 29 29 27 29 21 14 12 13 21 27 27 35 31 29 26 13 9 7 8 12 16 16 43 25 13 11 12 13 14 11 10 11 15 15 15 15 14 12 12 13 14
23 28 26 29 30 27 17 15 14 13 12 17 22 22 19 20 21 17 11 14 9 10 11 8 10 16 19 16 9 9 9 8 8 9 11 12 12 11 9 9 10 13 16 16
37 29 31 21 18 21 17 17 14 9 16 18 18 17 16 16 15 12 11 10 11 9 9 9 23 14 10 7 6 7 7 8 8 9 10 10 11 10 9 10 11 14 17 18
35 36 28 21 16 15 29 34 27 26 25 19 15 14 12 16 13 12 8 11 9 8 10 20 21 15 10 7 6 6 7 8 9 11 13 14 15 15 16 17 17 17 19 20
37 32 20 34 43 40 34 20 15 20 21 21 18 16 17 15 12 9 11 8 9 9 8 7 5 4 5 7 8 9 11 13 14 15 17 17 16 16 16 16 16 17 19 20
42 40 38 45 43 36 32 28 28 26 28 25 21 17 12 16 10 12 14 9 8 5 8 10 12 10 9 9 11 12 14 18 19 18 17 18 20 20 20 19 18 19 21 24
34 48 53 59 56 50 40 35 33 30 32 28 19 13 16 11 13 22 21 33 26 27 26 17 11 12 10 8 10 17 22 25 26 27 25 26 27 25 22 21 21 22 24 25

GFSNW_700_spd_105.txt.gz
Wind_Speed
23 21 19 16 17 17 18 23 25 16 17 20 30 27 26 23 19 18 15 12 11 7 9 5 4 3 4 4 4 3 2 2 4 4 9 9 9 8 6 5 1 7 5 6
20 22 20 17 15 15 17 24 21 17 13 26 25 24 20 19 14 12 13 10 11 10 7 5 6 5 5 5 4 1 2 1 2 2 5 6 10 7 9 8 7 10 5 2
15 16 17 18 16 13 11 15 14 14 14 19 21 18 19 18 15 15 14 12 11 11 8 6 3 2 3 3 2 3 4 4 6 7 5 7 8 9 11 9 6 8 15 15
10 12 13 14 15 15 12 16 17 17 15 16 16 16 14 13 13 11 10 11 10 8 4 6 4 4 4 4 5 7 7 6 9 12 16 17 20 18 16 17 17 10 8 14
7 8 9 11 11 13 11 12 13 14 15 14 14 13 13 13 12 11 10 8 6 5 4 2 2 5 4 5 6 8 9 7 16 22 12 12 19 20 22 24 25 25 24 23
4 5 4 6 7 8 8 10 11 10 11 11 12 10 9 9 7 7 6 5 4 4 4 5 7 9 10 12 13 13 12 9 11 7 10 18 20 15 21 26 27 22 21 14
6 5 5 4 4 3 3 4 5 5 6 6 5 5 4 4 3 3 3 4 5 7 9 10 12 14 14 15 16 16 14 11 10 13 12 4 6 7 9 13 16 21 22 21
9 8 7 8 7 7 5 4 3 3 1 2 2 2 2 2 3 3 4 4 6 8 11 11 7 8 7 7 10 14 15 12 6 5 9 21 15 17 20 16 16 14 18 16
11 10 10 9 10 11 9 9 8 8 10 9 8 8 7 6 7 9 8 9 10 12 12 8 3 3 5 4 6 8 11 13 12 5 5 5 7 7 7 9 12 2 4 8
11 10 11 11 10 10 12 13 13 14 15 14 14 13 12 12 11 12 13 14 13 15 8 6 4 4 6 4 4 6 7 11 19 16 11 13 18 14 11 3 4 8 15 16
11 9 9 11 14 13 12 11 13 15 17 18 20 20 21 21 18 17 17 16 10 8 6 5 5 5 7 8 11 12 10 6 10 10 10 12 4 9 11 12 17 25 26 18
14 13 12 9 11 15 15 16 14 13 14 15 20 21 23 24 25 25 24 20 18 10 8 9 8 12 14 19 10 15 12 15 9 13 9 18 22 24 26 31 30 28 21 17
18 16 15 14 13 14 15 16 18 18 17 16 12 13 16 14 16 18 20 23 22 21 20 21 20 20 20 13 16 21 24 24 31 31 27 22 23 22 25 31 32 33 30 30
20 19 18 17 15 15 16 17 18 20 22 26 21 7 12 16 19 23 23 22 21 24 24 25 26 28 22 25 27 35 32 35 32 36 34 25 22 22 21 22 23 21 22 22
25 25 20 19 18 17 19 19 19 20 18 25 27 32 29 29 26 22 19 20 23 24 27 29 32 33 32 34 37 40 29 22 23 23 26 26 26 22 20 22 26 28 27 23
29 27 28 25 20 16 16 20 20 18 17 25 29 23 24 25 24 28 31 30 28 27 30 32 34 34 29 22 37 42 35 20 25 29 26 23 22 20 21 22 23 22 22 22
32 31 29 28 28 25 19 19 22 21 22 25 22 22 17 11 12 16 18 20 21 23 28 34 37 38 35 43 51 43 37 34 33 19 19 18 18 19 19 22 22 23 21 20
33 34 34 30 29 29 24 22 24 24 22 24 16 20 24 22 22 25 25 26 26 30 31 38 37 37 39 48 43 39 29 19 17 23 25 23 24 22 23 23 22 21 20 21
31 31 30 28 27 30 30 28 27 27 26 21 29 34 29 18 16 19 23 24 27 27 33 38 31 39 42 33 33 34 28 31 32 31 27 25 21 21 21 20 20 19 18 20
30 26 23 27 26 26 28 32 34 34 34 38 36 34 43 36 34 29 22 18 15 17 22 23 27 42 36 23 19 19 23 27 28 26 22 20 17 19 19 19 18 16 16 16
29 31 30 24 23 24 26 23 16 13 11 15 19 25 35 34 32 30 16 11 10 9 11 14 11 34 22 19 14 12 12 14 15 15 14 13 12 15 18 18 15 13 12 13
30 31 30 31 24 19 15 15 12 11 9 13 17 21 24 23 19 17 11 15 10 10 11 9 9 24 25 20 14 10 8 8 8 7 7 9 10 12 13 12 11 11 12 14
21 22 24 19 15 19 13 13 10 7 11 15 15 17 18 16 12 10 9 8 11 10 9 10 24 22 19 16 12 6 6 6 6 6 6 7 9 11 11 11 11 12 15 18
19 23 22 15 15 15 25 29 26 23 23 23 21 18 13 15 11 11 7 10 9 9 9 26 25 23 16 10 7 6 6 8 7 7 9 10 12 12 12 12 14 16 19 21
25 19 19 31 38 39 33 27 26 24 26 22 23 21 15 16 12 8 10 7 9 10 11 12 13 12 13 9 8 8 8 9 11 13 14 14 15 15 14 15 16 18 20 20
32 28 32 39 36 36 36 35 33 25 28 30 30 23 12 16 11 14 14 10 13 18 15 15 15 18 17 13 12 11 10 12 16 20 21 22 23 21 20 19 20 20 23 25
39 43 46 48 52 49 48 46 43 35 33 33 28 24 19 13 12 17 21 35 36 35 33 30 28 27 23 20 15 11 16 19 20 21 23 28 31 33 33 32 33 30 26 24

GFSNW_700_spd_108.txt.gz
Wind_Speed
19 19 18 18 20 21 18 24 24 17 15 17 23 22 21 21 19 16 14 13 13 9 9 8 4 5 5 4 5 3 1 6 5 3 8 9 9 8 8 5 0 9 8 10
15 16 19 18 14 14 16 21 22 18 12 18 20 19 17 16 12 10 12 10 12 13 10 6 5 4 4 3 1 2 2 1 0 2 6 5 10 10 12 12 14 15 4 6
13 14 15 16 16 14 11 12 16 16 13 18 17 16 15 16 15 14 14 13 11 12 9 8 6 5 3 2 2 2 2 4 6 6 5 8 11 10 13 16 9 9 20 23
10 11 12 11 12 13 11 14 14 12 15 15 15 14 13 11 11 10 9 11 10 8 4 5 3 3 1 1 1 2 4 4 8 13 15 19 22 23 21 26 26 17 16 15
7 7 8 9 9 10 10 10 11 12 12 11 14 10 10 10 8 7 7 6 5 4 2 1 4 3 3 6 4 7 8 6 16 21 13 12 20 22 25 30 34 35 31 30
6 6 5 5 6 7 7 8 8 7 9 7 9 6 5 5 4 5 4 3 3 3 5 7 9 11 11 12 12 13 12 9 13 8 8 18 24 16 22 30 33 29 34 20
6 7 8 7 6 5 4 3 3 3 4 4 3 3 3 2 3 3 4 6 7 8 11 12 13 15 15 16 15 16 15 14 11 13 12 3 4 8 10 14 13 18 24 20
5 6 7 8 9 9 7 6 7 7 5 6 7 7 7 7 7 7 6 6 8 11 14 14 8 9 6 6 10 14 15 15 7 5 8 22 11 13 13 19 19 17 16 12
8 7 7 8 8 9 12 13 11 11 11 6 7 10 11 11 12 12 10 11 12 12 15 8 3 3 4 5 5 7 10 12 12 4 5 5 5 9 10 11 15 5 4 5
13 9 9 8 10 9 8 10 14 17 17 16 15 12 12 13 14 16 17 15 14 17 8 7 5 6 7 5 6 6 8 11 21 21 10 14 17 15 11 6 5 8 12 21
13 14 12 9 10 12 13 11 11 12 13 15 18 19 19 18 17 16 16 18 12 10 6 5 6 7 8 9 11 14 11 7 10 10 10 12 2 6 12 16 20 22 29 29
15 15 15 15 13 12 12 15 16 15 14 14 15 14 16 17 19 21 22 19 18 10 9 10 8 12 17 18 12 12 13 15 9 14 11 21 27 33 32 32 32 32 33 31
16 15 16 17 17 16 15 15 16 19 20 17 16 8 15 18 14 17 19 18 18 20 20 24 23 25 21 21 23 22 23 21 28 28 30 25 28 32 31 30 30 33 33 32
16 19 20 20 20 20 18 18 16 17 21 24 10 12 14 15 18 23 24 23 25 24 23 25 29 32 20 29 30 34 31 33 36 37 30 21 22 23 23 23 25 25 24 23
22 21 21 21 20 21 21 21 21 22 19 23 24 23 20 22 24 22 24 27 26 22 27 30 34 35 34 38 41 49 40 34 33 27 24 26 30 27 24 22 21 23 24 24
26 26 26 25 24 22 22 22 20 17 22 27 30 23 24 17 11 12 19 23 27 32 33 33 36 35 31 28 46 52 44 38 31 26 25 30 30 21 21 21 21 23 23 24
28 28 28 30 28 27 23 24 23 22 23 25 22 20 10 7 14 20 19 19 20 22 27 34 34 37 37 48 53 40 39 39 37 35 34 27 19 18 20 22 22 22 23 24
28 28 28 29 30 29 27 24 25 26 25 25 13 21 24 20 25 24 20 18 21 26 28 36 36 35 39 47 37 37 31 34 26 23 26 22 22 22 22 23 22 23 23 24
29 28 29 30 29 28 27 28 27 26 24 18 21 31 32 17 15 14 22 29 30 29 29 31 25 31 36 37 34 29 28 33 32 28 30 29 30 28 28 25 22 23 23 23
26 27 27 29 23 22 24 29 30 32 32 35 34 30 39 34 31 30 24 16 9 16 17 17 21 27 31 25 22 27 28 25 24 24 25 26 26 24 21 21 21 21 22 20
24 26 26 26 27 27 27 19 12 11 9 9 7 10 22 25 29 29 15 10 9 8 9 10 9 20 24 21 26 27 22 20 14 11 11 13 12 9 11 14 15 16 16 15
22 23 25 26 25 18 11 11 9 6 7 8 9 10 12 14 14 8 9 11 8 8 9 7 6 20 27 28 25 21 18 11 8 6 6 8 9 9 11 13 13 12 11 11
20 19 17 13 11 17 12 11 9 5 5 8 10 11 13 11 10 7 9 8 10 9 8 9 24 16 22 27 20 14 11 8 6 6 7 9 11 13 14 15 15 15 16 17
17 17 16 12 12 10 16 21 20 19 17 17 13 18 14 14 15 10 7 9 8 7 9 24 14 16 18 20 14 11 9 7 8 9 11 12 14 13 12 12 12 13 16 18
19 13 14 22 23 26 24 16 11 12 18 20 20 21 20 17 11 9 9 7 10 9 9 11 14 22 24 24 22 17 14 12 12 12 12 13 15 18 19 18 20 23 26 25
22 28 31 35 35 32 31 29 30 27 24 23 22 21 16 20 13 14 14 10 13 26 28 26 30 29 27 29 30 24 21 20 19 17 18 19 20 22 23 25 28 28 36 34
33 47 45 45 47 46 42 36 33 31 35 39 35 34 27 23 16 19 22 31 25 26 29 32 31 33 31 28 33 35 32 30 27 24 23 23 26 28 32 35 38 40 43 37

GFSNW_700_spd_111.txt.gz
Wind_Speed
18 19 19 20 20 20 19 22 23 17 16 15 24 22 21 18 15 15 13 10 10 11 10 5 3 5 5 8 9 11 7 8 8 3 4 8 8 5 7 5 5 10 4 11
15 16 16 17 18 14 14 18 19 16 15 18 20 18 15 15 13 11 10 9 10 11 10 4 5 5 6 5 5 5 7 6 5 4 8 15 18 16 16 15 13 15 5 8
12 13 13 13 13 16 13 12 14 15 13 16 17 16 14 13 12 11 11 11 11 10 5 5 6 5 4 4 3 3 4 8 9 10 3 6 11 12 15 20 12 16 29 27
7 9 11 11 11 11 12 12 14 12 11 12 12 10 10 9 9 7 6 8 6 6 3 4 2 1 0 2 3 3 4 7 11 13 15 18 22 24 23 27 31 24 29 27
6 4 6 8 9 9 11 10 11 11 11 10 10 10 8 8 7 6 6 6 4 3 3 2 4 5 5 5 5 6 8 6 14 20 13 13 21 23 26 33 36 40 38 35
9 6 3 2 4 5 5 6 7 6 7 7 7 7 6 6 6 5 5 5 5 6 5 7 10 12 12 13 13 13 12 8 12 8 8 18 23 8 11 22 30 31 39 14
11 9 6 6 2 2 4 4 3 3 4 4 4 4 5 7 7 7 8 8 9 9 11 13 13 14 13 15 15 17 15 13 10 12 15 2 4 7 10 16 16 18 22 17
14 14 10 7 7 6 6 7 8 6 7 7 7 6 7 7 8 8 8 9 10 13 14 17 9 6 6 5 9 14 16 16 8 5 7 23 12 16 8 11 14 15 20 15
14 15 15 11 9 7 7 7 10 12 11 9 8 11 11 11 11 11 8 11 14 14 16 12 4 3 4 4 5 8 10 14 15 7 5 6 5 6 8 13 21 6 7 8
10 12 14 15 14 11 11 10 8 8 10 13 15 14 12 14 15 15 15 14 12 14 8 9 4 4 5 4 5 5 10 13 23 23 11 15 14 16 12 5 7 12 17 17
10 11 11 12 14 15 14 11 13 13 12 12 12 12 14 15 15 15 16 16 8 7 5 4 3 6 6 8 12 14 10 9 9 12 10 11 4 8 14 18 25 27 25 23
13 12 12 11 12 12 13 14 13 12 11 14 17 17 16 16 14 15 16 15 17 9 7 7 6 11 15 18 13 17 12 11 10 13 13 25 32 34 34 34 32 32 33 31
13 13 16 15 14 15 16 16 16 16 16 14 8 9 8 14 21 19 12 14 18 19 18 21 20 20 20 23 24 23 23 23 30 29 32 34 37 39 33 33 31 31 32 32
13 14 17 20 19 19 18 18 19 20 20 15 2 15 16 19 15 16 22 24 21 23 24 24 27 29 25 32 35 39 37 38 41 45 36 36 24 19 21 23 26 27 26 27
20 17 18 19 19 18 19 20 20 21 17 21 24 23 15 9 16 21 23 26 22 21 25 28 30 32 33 36 38 43 34 33 29 35 23 25 24 26 28 29 25 24 24 24
22 22 22 22 22 21 21 20 18 16 21 25 28 25 25 20 10 7 12 14 14 18 22 27 32 28 26 24 39 39 32 33 30 31 23 24 27 29 27 27 26 24 24 24
23 24 25 25 24 25 23 22 23 23 21 22 19 17 6 5 10 20 22 21 20 19 20 27 29 29 31 42 42 30 26 28 29 27 29 33 28 27 24 21 23 26 27 25
24 24 26 27 27 26 26 25 26 26 24 23 9 14 19 18 23 22 17 14 14 20 24 31 34 34 34 39 26 32 31 24 26 28 30 30 26 20 17 20 23 26 27 26
26 25 27 26 24 26 27 27 27 26 23 18 21 25 28 18 17 18 21 28 24 25 24 25 20 22 25 30 33 25 22 30 33 28 27 26 27 22 23 29 29 25 23 24
25 24 25 26 21 22 23 28 30 31 28 28 26 24 32 29 30 29 23 14 8 11 10 10 15 20 20 20 25 25 28 29 27 25 20 18 15 17 21 25 23 19 19 20
21 22 23 23 24 24 23 16 10 8 5 7 6 5 8 10 12 14 8 8 9 7 6 7 6 13 12 21 28 30 31 27 21 18 15 12 10 8 8 9 10 13 14 15
19 21 22 21 20 12 10 8 6 7 6 5 3 2 5 9 12 8 9 10 7 8 10 6 7 20 19 21 23 22 20 18 16 13 11 10 10 10 10 12 13 13 14 15
17 18 19 11 9 14 8 7 6 4 3 4 4 7 9 11 8 6 6 5 8 11 8 9 14 11 12 17 22 24 23 19 16 14 13 14 15 15 14 12 12 13 13 14
15 13 11 8 10 8 8 10 10 10 11 11 11 10 10 12 13 8 6 9 10 7 8 20 7 10 19 22 27 27 23 23 21 19 19 19 18 18 17 16 15 15 19 20
16 11 11 16 14 11 12 10 7 7 10 12 17 21 22 17 11 8 9 7 10 8 12 13 25 22 30 26 26 26 27 27 24 23 24 26 24 23 24 26 26 26 25 25
23 22 21 19 18 18 17 18 20 19 20 23 23 17 12 14 11 15 17 17 20 26 31 30 30 28 29 31 37 37 38 35 34 32 30 32 32 29 26 29 32 36 37 40
29 38 37 37 39 38 34 29 30 29 27 28 31 23 19 19 21 30 29 40 43 34 36 36 41 42 47 47 46 40 41 41 38 38 33 30 33 36 37 36 36 39 42 45

GFSNW_700_spd_114.txt.gz
Wind_Speed
16 15 17 15 18 21 17 18 19 17 15 16 23 21 16 15 14 12 11 9 12 9 7 4 1 4 3 6 6 10 6 5 5 4 4 7 9 7 10 5 5 7 3 11
12 13 12 14 13 14 15 17 17 15 14 16 19 18 15 13 9 7 6 7 6 9 5 2 4 4 7 6 6 6 5 5 3 2 8 15 18 17 17 15 10 12 5 7
10 9 10 9 10 11 10 10 10 12 12 14 15 15 13 12 11 9 8 9 7 5 4 3 4 4 3 4 5 5 6 8 9 8 3 5 11 13 18 23 13 16 32 32
7 7 7 8 8 9 10 10 12 13 12 13 12 12 10 9 8 7 6 5 5 4 3 4 2 1 2 4 5 5 5 7 11 15 16 20 22 23 22 29 31 29 31 33
6 6 5 4 4 5 6 6 7 9 9 10 10 10 10 9 8 7 6 6 5 5 3 3 4 5 5 5 4 6 9 9 15 22 18 22 29 30 33 37 37 42 40 38
6 6 6 7 5 4 2 1 2 3 4 5 5 6 6 6 7 6 6 5 5 4 5 7 9 11 11 12 11 12 13 9 12 7 7 17 25 18 25 29 32 31 40 14
8 7 6 7 9 8 7 6 4 4 2 3 3 3 2 3 4 4 4 5 7 8 10 12 14 11 11 13 15 15 15 14 11 13 16 3 4 6 8 13 17 19 25 20
10 8 7 7 8 9 11 11 10 8 8 7 7 7 5 6 6 6 6 8 8 10 12 13 6 4 3 4 8 13 15 15 8 6 9 25 13 10 17 15 17 16 19 16
9 9 9 7 9 7 10 10 10 11 12 12 10 9 10 12 11 9 9 10 13 12 12 7 3 2 3 3 4 7 10 14 15 5 4 5 6 6 9 14 11 6 15 19
9 9 9 7 7 6 7 7 10 12 11 8 9 11 13 12 12 14 14 13 12 14 8 7 4 3 4 4 4 5 8 12 20 20 10 14 16 12 10 5 8 23 29 26
14 11 10 8 9 7 6 7 6 7 8 12 13 9 10 11 12 13 12 13 5 7 5 4 3 4 5 7 10 11 8 7 7 9 10 11 4 8 14 21 29 32 32 33
18 15 13 10 9 11 11 9 9 9 8 10 11 13 14 14 14 13 14 12 12 6 6 7 7 11 15 15 11 15 11 8 11 13 14 24 36 32 30 34 39 35 31 29
17 19 16 13 13 13 15 16 15 13 12 13 10 9 5 11 13 18 17 15 14 13 16 20 19 18 18 18 19 21 23 22 29 33 26 32 33 34 34 33 29 23 24 27
17 19 19 18 17 16 16 16 17 17 17 12 2 12 17 19 19 17 15 16 22 23 23 22 26 28 20 26 25 33 32 33 35 38 28 26 22 23 24 28 29 27 28 30
19 19 23 24 22 19 17 18 18 19 15 17 19 20 18 13 22 22 20 18 19 23 25 25 27 28 29 33 34 29 22 23 23 29 22 27 28 27 28 31 28 27 27 27
17 18 19 24 22 21 20 19 16 16 18 21 22 20 22 20 13 10 9 9 16 18 20 23 28 26 22 21 32 34 31 24 27 33 30 29 29 28 29 32 30 31 29 26
20 20 20 23 23 22 21 21 20 21 22 21 16 15 6 4 7 12 17 23 23 23 24 28 27 25 26 35 43 34 16 25 24 24 31 33 31 34 32 31 30 29 26 24
24 25 24 25 26 26 26 24 24 23 21 20 8 11 15 18 20 22 22 19 16 18 21 27 29 29 30 32 12 18 28 24 22 27 31 34 32 30 31 29 27 26 24 26
27 27 28 26 26 25 26 25 23 23 20 15 18 18 21 17 15 15 19 25 20 21 21 22 16 17 18 22 29 24 22 30 31 26 29 30 31 29 26 25 26 26 28 30
26 25 25 25 22 21 22 23 25 26 26 29 26 21 25 22 23 24 17 12 8 10 9 7 10 7 15 16 19 26 29 30 28 24 21 21 20 20 18 17 17 16 15 15
23 22 22 20 18 18 19 13 9 7 6 9 9 8 8 9 11 8 6 8 8 7 6 5 3 12 9 14 15 14 16 19 19 19 19 19 18 17 17 17 16 15 14 13
21 20 20 18 15 10 10 8 7 8 7 6 5 5 4 2 4 4 6 8 7 6 6 4 7 8 6 4 10 16 17 19 19 19 18 19 21 22 22 20 19 17 15 13
18 17 16 10 10 14 8 7 7 6 6 7 8 7 4 3 4 4 6 6 8 8 6 6 8 7 5 11 14 13 17 20 20 20 22 24 23 22 24 24 22 20 19 20
17 16 13 9 9 9 9 12 10 9 8 8 9 9 7 7 9 7 5 9 8 7 8 14 11 10 10 13 13 17 23 23 23 24 28 29 30 29 27 26 28 29 29 29
18 10 11 16 10 10 13 13 12 12 12 12 12 13 15 16 10 9 9 7 9 8 8 2 9 16 24 32 30 35 37 38 39 38 40 39 35 34 33 33 33 33 35 35
23 21 16 7 8 13 13 11 11 13 15 18 18 16 14 15 10 15 15 15 18 23 22 25 33 39 44 44 47 44 44 45 46 44 44 42 42 40 39 36 37 39 41 43
25 32 31 30 28 28 26 21 20 20 18 18 21 15 14 13 15 25 22 38 41 37 39 42 36 39 38 43 44 44 45 45 48 48 44 42 40 41 42 44 45 46 46 49

GFSNW_700_spd_117.txt.gz
Wind_Speed
13 13 14 12 14 15 15 16 18 17 15 13 22 21 19 18 15 14 13 11 9 7 7 5 4 5 3 6 8 6 3 2 4 4 4 6 11 8 9 5 4 5 3 11
12 11 10 11 10 8 12 14 15 16 14 15 17 18 16 14 9 7 8 7 7 8 5 3 5 4 6 5 6 7 4 4 2 2 8 13 16 18 16 15 9 12 4 7
7 9 9 8 9 8 7 6 7 9 11 14 14 15 13 12 11 10 10 9 7 5 5 5 5 5 3 4 5 5 5 7 9 7 3 7 11 11 18 20 11 12 29 33
6 5 6 7 7 6 8 7 7 7 7 10 11 11 11 10 10 8 7 7 7 6 5 5 4 2 3 4 5 6 6 7 11 14 17 22 24 23 19 27 31 27 31 33
7 6 5 4 5 7 6 5 5 5 5 6 7 6 8 8 8 7 7 6 6 5 3 2 1 3 4 6 7 9 10 8 14 21 16 21 29 29 31 36 36 41 41 36
10 7 7 6 6 6 6 6 5 5 4 4 3 2 2 3 3 2 2 2 1 1 1 4 6 8 9 10 9 10 11 8 10 6 7 18 21 7 10 24 32 32 39 20
12 9 8 8 6 6 8 8 8 9 8 7 6 5 4 4 3 3 3 3 4 4 7 10 11 10 10 11 13 14 14 11 9 10 12 2 2 14 16 13 11 14 20 17
11 10 9 8 7 7 4 5 8 10 11 12 11 10 9 8 8 8 8 9 8 9 12 11 6 4 3 4 8 11 13 12 6 5 9 19 0 6 7 6 11 5 7 16
11 11 10 9 6 7 6 6 6 6 7 6 9 10 11 12 13 11 10 9 12 13 11 9 3 3 2 2 3 6 8 11 12 5 5 5 3 6 9 11 4 4 17 27
13 12 12 11 8 6 7 6 4 7 9 9 8 8 10 9 8 9 11 10 10 9 6 5 4 3 4 3 4 4 6 9 16 17 10 13 14 9 10 7 8 23 29 32
16 15 13 12 10 9 8 9 9 6 7 9 8 8 8 11 10 10 9 10 6 5 3 3 3 4 4 6 9 7 5 5 6 8 9 7 3 10 16 24 29 32 33 36
16 16 15 14 12 11 11 12 12 12 10 11 12 13 10 10 11 11 10 12 13 7 4 4 5 8 12 14 8 11 9 8 9 10 11 23 31 29 30 32 41 40 38 29
16 16 16 16 15 13 13 13 14 14 13 14 9 11 6 7 9 12 15 14 15 17 16 14 13 13 17 14 15 16 16 17 24 29 16 27 28 24 29 30 30 29 31 34
17 16 17 18 17 18 17 16 15 16 16 14 7 5 15 20 19 15 12 14 16 17 20 23 24 23 18 21 21 26 26 31 30 31 27 26 23 25 29 33 33 34 31 33
17 17 17 18 19 20 21 20 19 18 15 16 16 16 19 15 17 21 22 18 18 17 18 22 27 26 24 28 30 24 11 19 20 28 26 31 32 26 27 31 33 34 37 37
17 18 18 17 17 18 18 20 17 14 15 21 21 17 21 20 20 15 10 11 10 13 18 21 25 23 17 18 25 23 23 21 20 27 26 27 29 30 31 33 33 34 35 35
22 22 22 21 20 20 18 19 22 22 20 19 15 15 13 10 8 9 13 15 18 21 24 27 25 23 22 27 34 29 15 18 21 23 30 29 27 31 31 33 32 32 31 29
25 25 26 26 25 24 25 24 22 23 22 19 10 13 15 16 19 21 22 22 22 20 18 23 24 25 26 16 4 9 23 20 19 24 26 29 27 26 27 28 28 27 26 25
24 24 26 29 27 29 27 25 25 22 21 15 19 19 16 14 13 12 13 17 21 22 21 19 13 15 8 9 18 16 18 18 15 12 16 17 20 20 21 20 22 23 22 21
27 27 27 28 27 25 25 23 22 24 26 29 29 27 26 22 21 20 16 11 7 8 9 6 8 9 6 13 14 8 7 11 13 13 10 11 12 17 19 21 22 23 22 21
29 29 26 25 22 21 22 15 11 10 11 15 17 18 24 23 23 18 8 6 6 5 5 6 5 5 10 10 7 2 4 7 10 13 17 19 22 24 24 22 21 21 21 20
25 24 22 20 17 12 11 9 10 12 10 10 11 12 11 8 9 8 6 7 5 7 5 5 4 8 13 11 8 4 4 11 15 19 20 21 24 27 28 28 26 24 22 23
18 18 16 11 12 16 9 7 7 6 6 7 9 9 9 7 5 5 6 6 7 7 6 5 13 18 17 14 8 10 16 25 26 28 29 28 29 31 36 36 33 31 31 33
17 14 12 9 9 8 12 16 11 10 6 8 10 8 5 6 6 7 5 8 7 7 8 14 13 18 12 9 15 26 36 39 38 40 38 38 41 39 36 37 38 38 36 34
17 10 9 14 13 12 10 13 13 9 10 10 10 11 12 11 9 7 7 6 8 8 8 14 14 12 13 21 32 38 43 42 38 40 40 39 38 39 40 41 40 37 37 40
20 17 9 4 5 12 11 7 8 11 11 12 13 13 12 14 9 15 13 13 14 20 18 17 22 28 35 43 47 50 52 48 44 44 40 38 40 41 45 46 40 36 37 38
18 24 23 24 22 16 11 12 15 15 17 19 16 11 11 11 13 21 22 35 34 32 35 37 40 45 50 48 47 43 44 47 48 49 48 48 48 47 47 50 43 41 39 39

GFSNW_700_spd_120.txt.gz
Wind_Speed
11 12 12 12 13 14 14 13 13 15 15 12 21 22 21 19 17 17 16 11 10 9 8 7 5 7 5 8 6 7 4 3 4 5 6 6 10 9 8 5 3 4 2 11
9 10 11 11 10 9 10 12 13 12 11 11 18 18 16 14 11 8 8 8 11 9 6 5 6 7 8 7 8 7 3 4 4 3 6 11 13 15 15 12 11 10 4 7
8 8 8 9 11 11 10 9 7 9 8 10 13 13 13 13 12 10 8 9 7 6 6 6 6 7 5 5 5 4 4 5 6 5 1 4 8 8 13 19 11 12 27 33
11 8 7 7 7 8 10 9 10 10 8 9 8 8 8 8 7 7 7 7 7 5 4 5 4 3 3 4 5 5 5 6 10 11 14 19 21 21 21 24 28 25 30 32
12 11 9 8 7 7 6 6 7 7 7 7 7 6 5 5 5 6 5 5 4 3 4 2 2 3 4 5 6 8 9 7 12 17 16 20 25 25 28 30 32 38 37 31
11 11 12 9 8 8 7 6 5 5 6 6 6 5 6 4 3 3 2 1 0 1 2 3 5 7 8 9 8 8 10 9 9 5 5 15 16 1 9 13 18 20 28 17
10 10 11 12 10 8 8 9 9 7 6 6 6 6 6 5 5 5 4 4 5 4 6 8 11 11 12 14 14 14 12 9 8 9 9 2 1 13 11 11 9 10 9 6
13 10 8 10 11 10 7 7 9 10 9 8 7 7 8 7 6 7 7 7 7 7 9 8 5 2 3 5 9 11 12 11 6 5 9 14 3 2 9 11 6 1 8 15
13 14 11 7 8 9 8 8 8 10 10 7 7 7 7 7 9 10 8 7 9 10 9 5 2 2 2 2 3 7 9 11 10 4 5 4 1 4 6 15 2 4 14 24
14 16 15 12 9 8 8 7 8 9 9 9 9 10 10 9 7 7 8 8 7 7 5 3 2 2 3 2 2 2 4 7 15 13 8 9 10 6 14 7 8 20 31 35
15 17 17 14 11 10 10 9 7 8 10 11 8 11 9 9 11 11 9 8 4 4 3 2 2 2 3 4 6 6 5 5 5 5 8 4 4 19 16 26 31 35 36 39
17 15 17 16 13 12 12 12 13 11 10 12 13 14 11 10 8 8 10 9 9 5 5 3 3 5 9 9 6 7 6 8 5 7 8 22 23 21 33 36 37 35 35 33
17 17 16 16 15 13 12 11 12 14 14 14 9 11 13 8 7 10 12 14 16 15 15 17 13 9 11 10 8 11 11 13 19 22 6 20 32 22 24 25 31 36 36 37
20 17 17 16 15 16 16 17 16 15 15 17 12 6 5 12 19 21 16 14 15 16 16 17 20 19 15 15 18 21 20 26 24 25 22 25 20 21 25 24 27 31 32 35
21 19 17 16 15 15 16 16 17 16 14 15 17 18 19 20 16 17 19 18 19 19 19 19 18 19 19 24 24 16 8 13 18 26 28 24 21 22 26 26 28 31 35 32
22 20 18 17 16 16 16 17 15 13 13 17 19 17 20 24 25 23 19 12 12 15 16 16 21 20 17 15 17 13 14 16 21 16 21 23 25 25 30 32 33 33 33 33
23 22 20 20 20 19 19 18 20 20 20 21 15 18 15 13 13 12 10 12 11 12 16 21 23 22 19 22 25 18 14 7 15 17 17 14 18 19 21 23 22 22 23 24
26 25 23 22 23 23 23 24 24 23 23 22 11 16 18 16 15 17 19 19 20 21 20 23 19 19 20 11 7 8 11 11 12 13 15 16 14 14 15 18 19 20 22 23
23 27 24 23 22 23 24 25 26 26 23 16 18 21 19 15 15 15 13 13 15 19 22 22 16 18 10 10 11 15 9 6 9 8 9 11 12 13 16 18 19 21 22 23
26 28 22 26 23 23 25 25 25 25 27 29 29 28 25 22 22 18 12 11 10 7 9 9 12 16 14 17 16 12 8 6 5 7 10 13 14 17 21 24 26 27 26 25
27 25 28 27 24 23 23 16 11 10 12 18 22 24 28 27 24 22 11 7 6 5 8 9 7 9 15 14 13 12 11 9 10 12 15 20 23 26 31 32 32 31 28 27
29 31 28 25 21 14 11 8 9 13 11 13 13 16 14 14 15 11 7 8 6 6 5 6 4 12 17 16 17 15 12 10 12 16 22 28 33 37 39 39 39 38 36 34
38 29 20 12 13 16 10 10 11 9 10 10 10 10 10 7 8 6 5 5 6 5 6 6 12 16 20 22 19 17 17 17 20 25 32 37 42 45 46 45 39 36 35 35
23 13 11 10 10 11 15 18 14 14 12 10 10 12 9 9 6 6 5 7 5 6 8 15 12 12 18 21 24 25 26 27 31 37 41 46 50 52 50 45 44 42 41 39
14 10 9 15 16 13 10 12 13 14 13 12 12 12 11 10 8 7 7 6 7 7 7 8 12 22 27 27 29 29 30 35 41 48 53 58 57 55 54 49 48 47 48 47
14 12 8 8 8 12 13 8 9 11 13 13 13 10 6 10 9 12 13 11 9 9 13 15 19 25 26 29 33 38 45 52 58 59 58 56 55 54 53 54 52 51 52 52
11 10 16 15 10 3 2 5 7 9 12 14 14 9 9 11 15 17 18 31 30 31 34 36 37 41 47 49 51 54 56 57 57 56 54 54 52 51 51 51 48 46 46 44

GFSNW_700_spd_123.txt.gz
Wind_Speed
12 12 12 12 12 13 16 17 17 16 14 12 19 20 20 20 19 18 16 11 11 9 9 8 5 9 6 10 6 6 5 5 6 8 7 7 11 9 10 4 5 5 2 8
9 10 10 11 11 13 12 11 15 16 15 14 15 16 14 13 11 8 7 7 8 8 7 5 9 8 11 9 8 8 6 6 7 4 6 11 11 14 12 12 8 10 4 4
11 9 9 9 9 10 11 12 8 11 13 12 12 12 11 11 10 8 7 8 7 6 6 6 8 11 9 10 10 8 4 7 5 6 3 5 8 9 15 18 9 9 22 24
15 12 9 7 7 8 8 8 8 10 8 10 11 11 9 8 6 6 5 5 6 5 5 7 7 6 8 7 6 6 4 4 8 10 13 15 17 18 17 22 24 20 23 27
14 14 13 10 8 6 6 6 5 5 6 6 7 7 7 8 7 6 6 4 3 3 2 2 3 3 4 4 6 7 7 5 7 12 13 17 22 21 24 27 28 33 32 23
12 12 14 13 11 8 6 5 4 5 5 3 3 2 3 3 4 4 3 2 2 2 2 2 2 4 6 6 5 6 7 5 7 3 4 10 14 1 9 17 18 16 18 11
11 11 11 13 13 11 9 7 6 6 6 7 5 4 2 2 2 1 1 2 2 2 4 6 8 9 9 11 11 11 10 7 6 6 7 2 2 4 6 1 7 8 3 1
11 10 11 10 12 13 11 9 8 7 7 7 7 7 7 7 6 5 5 5 5 5 5 6 3 1 3 5 7 10 11 10 4 3 6 9 3 5 4 7 2 3 2 7
13 11 11 12 10 10 11 10 9 8 7 4 6 8 6 6 8 9 8 5 6 6 7 3 2 2 2 3 2 5 7 9 9 3 4 2 2 1 6 10 7 5 12 21
15 15 12 11 11 10 9 9 10 9 9 6 7 5 6 8 8 7 7 7 6 6 4 3 3 2 3 2 3 4 6 9 14 12 7 4 4 4 15 4 6 19 29 33
17 16 15 12 10 10 10 10 10 11 11 12 5 10 7 8 7 8 8 7 5 5 4 3 3 3 3 4 5 4 5 5 6 8 8 3 9 12 11 18 30 32 30 29
19 17 17 15 13 11 11 10 11 10 10 13 14 13 12 7 7 7 5 7 7 4 4 4 4 4 5 5 4 6 6 9 5 7 3 6 16 17 22 32 28 28 32 29
21 18 17 16 16 14 13 12 11 11 12 13 10 11 13 14 9 6 7 10 12 13 13 14 12 11 11 7 6 8 10 14 17 13 7 6 18 22 23 25 26 26 29 31
23 20 19 18 16 16 13 14 14 13 14 16 13 8 6 10 11 15 19 18 13 14 15 16 18 16 13 14 13 16 19 21 20 22 20 18 16 17 20 20 23 26 27 31
23 22 20 19 17 16 14 12 12 12 11 13 14 16 18 17 17 20 19 17 18 17 19 19 17 18 15 19 24 20 9 16 16 15 16 20 15 17 17 18 20 24 26 22
24 23 22 20 19 18 16 14 11 7 9 14 17 14 19 20 21 24 25 23 22 22 20 17 19 20 15 14 20 15 14 15 19 19 17 17 17 21 23 22 21 21 22 24
23 24 23 23 21 19 17 17 18 17 16 17 13 16 13 12 12 13 14 13 10 12 15 18 19 18 18 26 29 22 23 18 11 10 10 11 11 13 14 14 15 17 20 23
24 25 23 24 23 22 20 20 20 21 20 20 9 16 21 19 16 16 15 14 16 19 18 22 21 20 21 16 15 15 9 11 11 9 8 8 8 7 9 12 13 15 19 21
27 25 24 26 24 23 22 21 20 20 20 17 21 24 22 16 15 15 15 15 14 16 20 21 16 22 13 12 17 12 13 13 10 10 9 8 7 9 13 16 20 23 25 28
28 26 22 26 24 22 20 21 23 24 25 28 29 30 29 25 23 16 12 10 11 9 13 12 17 26 21 16 15 15 14 14 14 15 14 15 16 18 20 24 28 33 35 37
28 29 23 22 22 20 20 15 10 9 13 19 23 24 27 26 22 20 11 8 7 6 9 12 7 11 16 17 19 18 18 19 20 20 21 22 23 26 28 30 34 38 43 47
29 29 25 24 20 14 10 9 9 11 12 15 15 14 15 15 16 14 10 12 8 7 7 7 6 13 13 15 20 22 23 22 23 23 22 22 25 30 35 39 43 47 51 52
33 29 26 12 13 17 11 13 12 11 13 13 12 11 10 8 8 7 6 7 7 6 7 7 9 10 16 22 24 24 25 26 27 27 29 30 32 34 40 46 51 56 59 55
35 29 16 13 11 12 18 23 19 19 18 15 12 11 10 10 9 8 6 8 6 6 8 7 7 14 23 26 28 29 30 32 34 36 37 39 42 46 49 51 60 61 59 57
35 22 12 19 19 17 12 13 15 18 17 15 13 14 14 12 9 7 8 6 8 8 5 7 12 17 22 26 30 32 34 36 39 41 45 48 51 54 56 62 59 56 54 52
27 20 15 12 13 16 15 14 14 14 14 13 13 12 8 11 8 9 11 7 6 5 9 14 17 20 27 30 33 35 38 41 45 50 55 58 61 62 60 58 55 50 46 45
13 12 15 10 12 9 8 9 8 7 9 13 11 7 10 6 9 11 14 20 20 25 26 27 24 25 29 34 40 47 53 55 56 55 55 55 55 55 56 55 53 47 45 41